| time (UTC) | temp F | wind direction | speed MPH | gust MPH | rain 1hr in | rain 24hr in | rain mn in | humidity % | barometer mb |
| 20260905183505 | 91 | 323 | 4.0 | 9.0 | 0.00 | 0.00 | 0.00 | 56 | 1018.0 |
| 20260905183405 | 91 | 290 | 4.0 | 9.0 | 0.00 | 0.00 | 0.00 | 55 | 1018.0 |
| 20260905183303 | 91 | 305 | 3.0 | 9.0 | 0.00 | 0.00 | 0.00 | 54 | 1018.0 |
| 20260905183159 | 91 | 316 | 2.0 | 9.0 | 0.00 | 0.00 | 0.00 | 55 | 1018.0 |
| 20260905183100 | 91 | 317 | 2.0 | 9.0 | 0.00 | 0.00 | 0.00 | 55 | 1018.0 |
| 20260905182959 | 91 | 330 | 2.0 | 9.0 | 0.00 | 0.00 | 0.00 | 55 | 1018.0 |
| 20260905182900 | 91 | 22 | 2.0 | 9.0 | 0.00 | 0.00 | 0.00 | 56 | 1018.0 |
| 20260905182753 | 91 | 296 | 2.0 | 9.0 | 0.00 | 0.00 | 0.00 | 57 | 1018.1 |
| 20260905182655 | 91 | 31 | 2.0 | 7.0 | 0.00 | 0.00 | 0.00 | 57 | 1018.1 |
| 20260905182555 | 91 | 38 | 2.0 | 7.0 | 0.00 | 0.00 | 0.00 | 58 | 1018.1 |
| 20260905182453 | 90 | 82 | 2.0 | 7.0 | 0.00 | 0.00 | 0.00 | 58 | 1018.0 |
| 20260905182359 | 90 | 78 | 3.0 | 10.0 | 0.00 | 0.00 | 0.00 | 57 | 1018.0 |
| 20260905182247 | 90 | 78 | 3.0 | 10.0 | 0.00 | 0.00 | 0.00 | 57 | 1018.0 |
| 20260905182208 | 90 | 326 | 4.0 | 10.0 | 0.00 | 0.00 | 0.00 | 56 | 1018.2 |
| 20260905182157 | 90 | 78 | 4.0 | 10.0 | 0.00 | 0.00 | 0.00 | 57 | 1018.1 |
| 20260905182135 | 90 | 232 | 4.0 | 10.0 | 0.00 | 0.00 | 0.00 | 56 | 1018.2 |
| 20260905182012 | 90 | 326 | 4.0 | 10.0 | 0.00 | 0.00 | 0.00 | 56 | 1018.2 |
| 20260905181821 | 90 | 325 | 3.0 | 10.0 | 0.00 | 0.00 | 0.00 | 56 | 1018.4 |
| 20260905181808 | 90 | 312 | 3.0 | 10.0 | 0.00 | 0.00 | 0.00 | 57 | 1018.4 |
| 20260905181549 | 90 | 273 | 3.0 | 10.0 | 0.00 | 0.00 | 0.00 | 56 | 1018.4 |
| 20260905181443 | 90 | 298 | 3.0 | 10.0 | 0.00 | 0.00 | 0.00 | 56 | 1018.4 |
| 20260905181342 | 90 | 267 | 3.0 | 9.0 | 0.00 | 0.00 | 0.00 | 56 | 1018.4 |
| 20260905181330 | 91 | 311 | 2.0 | 5.0 | 0.00 | 0.00 | 0.00 | 57 | 1018.4 |
| 20260905181314 | 91 | 311 | 3.0 | 8.0 | 0.00 | 0.00 | 0.00 | 56 | 1018.4 |
| 20260905181041 | 90 | 310 | 2.0 | 5.0 | 0.00 | 0.00 | 0.00 | 57 | 1018.2 |
| 20260905180942 | 90 | 10 | 2.0 | 5.0 | 0.00 | 0.00 | 0.00 | 57 | 1018.4 |
| 20260905180840 | 90 | 10 | 2.0 | 5.0 | 0.00 | 0.00 | 0.00 | 57 | 1018.2 |
| 20260905180740 | 90 | 343 | 2.0 | 5.0 | 0.00 | 0.00 | 0.00 | 56 | 1018.4 |
| 20260905180648 | 90 | 291 | 2.0 | 5.0 | 0.00 | 0.00 | 0.00 | 57 | 1018.4 |
| 20260905180606 | 90 | 317 | 2.0 | 5.0 | 0.00 | 0.00 | 0.00 | 57 | 1018.4 |
| 20260905180435 | 91 | 9 | 2.0 | 5.0 | 0.00 | 0.00 | 0.00 | 58 | 1018.4 |
| 20260905180335 | 90 | 5 | 2.0 | 5.0 | 0.00 | 0.00 | 0.00 | 59 | 1018.4 |
| 20260905180235 | 90 | 35 | 2.0 | 5.0 | 0.00 | 0.00 | 0.00 | 58 | 1018.4 |
| 20260905180136 | 90 | 51 | 2.0 | 7.0 | 0.00 | 0.00 | 0.00 | 60 | 1018.5 |
| 20260905180033 | 90 | 31 | 2.0 | 7.0 | 0.00 | 0.00 | 0.00 | 60 | 1018.5 |
| 20260905175929 | 89 | 335 | 2.0 | 7.0 | 0.00 | 0.00 | 0.00 | 59 | 1018.4 |
| 20260905175830 | 89 | 300 | 2.0 | 7.0 | 0.00 | 0.00 | 0.00 | 60 | 1018.4 |
| 20260905175729 | 89 | 103 | 3.0 | 7.0 | 0.00 | 0.00 | 0.00 | 59 | 1018.5 |
| 20260905175629 | 89 | 80 | 3.0 | 7.0 | 0.00 | 0.00 | 0.00 | 60 | 1018.5 |
| 20260905175524 | 89 | 81 | 2.0 | 7.0 | 0.00 | 0.00 | 0.00 | 59 | 1018.5 |
| 20260905175423 | 89 | 31 | 3.0 | 7.0 | 0.00 | 0.00 | 0.00 | 58 | 1018.5 |
| 20260905175356 | 89 | 0 | 2.0 | 6.0 | 0.00 | 0.00 | 0.00 | 58 | 1018.6 |
| 20260905175345 | 89 | 34 | 3.0 | 7.0 | 0.00 | 0.00 | 0.00 | 58 | 1018.6 |
| 20260905175123 | 89 | 18 | 2.0 | 6.0 | 0.00 | 0.00 | 0.00 | 60 | 1018.6 |
| 20260905175053 | 89 | 79 | 2.0 | 7.0 | 0.00 | 0.00 | 0.00 | 59 | 1018.7 |
| 20260905175041 | 89 | 70 | 2.0 | 6.0 | 0.00 | 0.00 | 0.00 | 59 | 1018.6 |
| 20260905174816 | 89 | 37 | 2.0 | 7.0 | 0.00 | 0.00 | 0.00 | 59 | 1018.6 |
| 20260905174715 | 89 | 46 | 2.0 | 7.0 | 0.00 | 0.00 | 0.00 | 58 | 1018.6 |
| 20260905174616 | 89 | 49 | 3.0 | 7.0 | 0.00 | 0.00 | 0.00 | 58 | 1018.6 |
| 20260905174519 | 89 | 51 | 3.0 | 7.0 | 0.00 | 0.00 | 0.00 | 60 | 1018.6 |
| 20260905174416 | 89 | 74 | 3.0 | 7.0 | 0.00 | 0.00 | 0.00 | 59 | 1018.6 |
| 20260905174312 | 89 | 82 | 3.0 | 7.0 | 0.00 | 0.00 | 0.00 | 59 | 1018.6 |
| 20260905174213 | 89 | 82 | 3.0 | 7.0 | 0.00 | 0.00 | 0.00 | 60 | 1018.6 |
| 20260905174116 | 89 | 355 | 3.0 | 7.0 | 0.00 | 0.00 | 0.00 | 58 | 1018.6 |
| 20260905174056 | 89 | 26 | 3.0 | 6.0 | 0.00 | 0.00 | 0.00 | 59 | 1018.6 |
| 20260905174042 | 89 | 5 | 2.0 | 7.0 | 0.00 | 0.00 | 0.00 | 58 | 1018.6 |
| 20260905173812 | 89 | 14 | 3.0 | 9.0 | 0.00 | 0.00 | 0.00 | 60 | 1018.6 |
| 20260905173712 | 89 | 69 | 3.0 | 9.0 | 0.00 | 0.00 | 0.00 | 60 | 1018.6 |
| 20260905173612 | 89 | 339 | 3.0 | 9.0 | 0.00 | 0.00 | 0.00 | 60 | 1018.6 |
| 20260905173513 | 88 | 328 | 3.0 | 9.0 | 0.00 | 0.00 | 0.00 | 59 | 1018.6 |
| 20260905173409 | 88 | 109 | 3.0 | 9.0 | 0.00 | 0.00 | 0.00 | 59 | 1018.6 |
| 20260905173310 | 88 | 87 | 3.0 | 9.0 | 0.00 | 0.00 | 0.00 | 59 | 1018.6 |
| 20260905173208 | 88 | 85 | 3.0 | 9.0 | 0.00 | 0.00 | 0.00 | 60 | 1018.7 |
| 20260905173107 | 88 | 63 | 4.0 | 9.0 | 0.00 | 0.00 | 0.00 | 62 | 1018.7 |
| 20260905173007 | 88 | 22 | 3.0 | 9.0 | 0.00 | 0.00 | 0.00 | 60 | 1018.7 |
| 20260905172903 | 88 | 42 | 3.0 | 9.0 | 0.00 | 0.00 | 0.00 | 61 | 1018.7 |
| 20260905172804 | 88 | 15 | 3.0 | 8.0 | 0.00 | 0.00 | 0.00 | 60 | 1018.7 |
| 20260905172703 | 88 | 38 | 2.0 | 8.0 | 0.00 | 0.00 | 0.00 | 59 | 1018.7 |
| 20260905172604 | 88 | 351 | 2.0 | 8.0 | 0.00 | 0.00 | 0.00 | 61 | 1018.7 |
| 20260905172504 | 88 | 70 | 2.0 | 8.0 | 0.00 | 0.00 | 0.00 | 59 | 1018.7 |
| 20260905172403 | 88 | 17 | 2.0 | 5.0 | 0.00 | 0.00 | 0.00 | 61 | 1018.7 |
| 20260905172305 | 88 | 19 | 2.0 | 5.0 | 0.00 | 0.00 | 0.00 | 61 | 1018.8 |
| 20260905172203 | 88 | 63 | 2.0 | 5.0 | 0.00 | 0.00 | 0.00 | 62 | 1018.7 |
| 20260905172103 | 88 | 355 | 2.0 | 5.0 | 0.00 | 0.00 | 0.00 | 62 | 1018.7 |
| 20260905172001 | 88 | 292 | 2.0 | 8.0 | 0.00 | 0.00 | 0.00 | 62 | 1018.7 |
| 20260905171932 | 88 | 62 | 3.0 | 8.0 | 0.00 | 0.00 | 0.00 | 63 | 1018.8 |
| 20260905171921 | 88 | 62 | 3.0 | 8.0 | 0.00 | 0.00 | 0.00 | 62 | 1018.7 |
| 20260905171752 | 88 | 63 | 4.0 | 10.0 | 0.00 | 0.00 | 0.00 | 63 | 1018.8 |
| 20260905171747 | 88 | 21 | 3.0 | 10.0 | 0.00 | 0.00 | 0.00 | 62 | 1018.8 |
| 20260905171733 | 88 | 342 | 3.0 | 10.0 | 0.00 | 0.00 | 0.00 | 62 | 1018.8 |
| 20260905171548 | 88 | 5 | 3.0 | 10.0 | 0.00 | 0.00 | 0.00 | 63 | 1018.8 |
| 20260905171421 | 88 | 9 | 4.0 | 10.0 | 0.00 | 0.00 | 0.00 | 62 | 1018.8 |
| 20260905171157 | 88 | 9 | 4.0 | 10.0 | 0.00 | 0.00 | 0.00 | 64 | 1018.9 |
| 20260905171057 | 88 | 0 | 4.0 | 10.0 | 0.00 | 0.00 | 0.00 | 63 | 1018.9 |
| 20260905171027 | 87 | 44 | 4.0 | 10.0 | 0.00 | 0.00 | 0.00 | 64 | 1018.9 |
| 20260905171015 | 87 | 39 | 4.0 | 10.0 | 0.00 | 0.00 | 0.00 | 63 | 1018.9 |
| 20260905170752 | 87 | 54 | 4.0 | 10.0 | 0.00 | 0.00 | 0.00 | 64 | 1018.8 |
| 20260905170717 | 87 | 92 | 4.0 | 10.0 | 0.00 | 0.00 | 0.00 | 64 | 1018.8 |
| 20260905170707 | 87 | 60 | 4.0 | 10.0 | 0.00 | 0.00 | 0.00 | 64 | 1018.9 |
| 20260905170444 | 87 | 57 | 4.0 | 10.0 | 0.00 | 0.00 | 0.00 | 65 | 1018.9 |
| 20260905170345 | 87 | 103 | 4.0 | 10.0 | 0.00 | 0.00 | 0.00 | 64 | 1019.0 |
| 20260905170240 | 87 | 51 | 4.0 | 10.0 | 0.00 | 0.00 | 0.00 | 65 | 1019.0 |
| 20260905170141 | 87 | 68 | 4.0 | 10.0 | 0.00 | 0.00 | 0.00 | 65 | 1019.0 |
| 20260905170041 | 87 | 54 | 4.0 | 8.0 | 0.00 | 0.00 | 0.00 | 66 | 1019.0 |
| 20260905170012 | 87 | 308 | 4.0 | 11.0 | 0.00 | 0.00 | 0.00 | 65 | 1019.0 |
| 20260905170003 | 87 | 78 | 4.0 | 11.0 | 0.00 | 0.00 | 0.00 | 64 | 1019.0 |
| 20260905165742 | 87 | 0 | 4.0 | 11.0 | 0.00 | 0.00 | 0.00 | 64 | 1019.1 |
| 20260905165641 | 87 | 29 | 4.0 | 11.0 | 0.00 | 0.00 | 0.00 | 66 | 1019.0 |
| 20260905165610 | 87 | 0 | 5.0 | 11.0 | 0.00 | 0.00 | 0.00 | 65 | 1019.0 |
| 20260905165600 | 87 | 34 | 4.0 | 11.0 | 0.00 | 0.00 | 0.00 | 67 | 1019.0 |
| 20260905165342 | 87 | 38 | 5.0 | 11.0 | 0.00 | 0.00 | 0.00 | 66 | 1019.0 |
| 20260905165241 | 87 | 67 | 5.0 | 11.0 | 0.00 | 0.00 | 0.00 | 65 | 1019.0 |
| 20260905165142 | 87 | 67 | 5.0 | 11.0 | 0.00 | 0.00 | 0.00 | 65 | 1019.0 |
| 20260905165115 | 87 | 77 | 4.0 | 10.0 | 0.00 | 0.00 | 0.00 | 66 | 1019.1 |
| 20260905165111 | 87 | 67 | 4.0 | 10.0 | 0.00 | 0.00 | 0.00 | 65 | 1019.1 |
| 20260905165058 | 87 | 87 | 4.0 | 11.0 | 0.00 | 0.00 | 0.00 | 65 | 1019.1 |
| 20260905165032 | 87 | 77 | 4.0 | 10.0 | 0.00 | 0.00 | 0.00 | 66 | 1019.0 |
| 20260905164638 | 87 | 42 | 3.0 | 9.0 | 0.00 | 0.00 | 0.00 | 65 | 1019.0 |
| 20260905164558 | 86 | 69 | 3.0 | 9.0 | 0.00 | 0.00 | 0.00 | 67 | 1019.0 |
| 20260905164552 | 86 | 5 | 4.0 | 9.0 | 0.00 | 0.00 | 0.00 | 66 | 1019.0 |
| 20260905164543 | 87 | 11 | 3.0 | 9.0 | 0.00 | 0.00 | 0.00 | 64 | 1019.0 |
| 20260905164519 | 87 | 18 | 3.0 | 9.0 | 0.00 | 0.00 | 0.00 | 66 | 1019.1 |
| 20260905164135 | 86 | 57 | 4.0 | 9.0 | 0.00 | 0.00 | 0.00 | 66 | 1019.0 |
| 20260905164037 | 86 | 76 | 3.0 | 9.0 | 0.00 | 0.00 | 0.00 | 65 | 1019.2 |
| 20260905163948 | 86 | 29 | 3.0 | 8.0 | 0.00 | 0.00 | 0.00 | 66 | 1019.1 |
| 20260905163834 | 86 | 14 | 3.0 | 8.0 | 0.00 | 0.00 | 0.00 | 65 | 1019.1 |
| 20260905163737 | 86 | 0 | 3.0 | 8.0 | 0.00 | 0.00 | 0.00 | 66 | 1019.2 |
| 20260905163713 | 86 | 47 | 3.0 | 8.0 | 0.00 | 0.00 | 0.00 | 67 | 1019.2 |
| 20260905163659 | 87 | 78 | 3.0 | 8.0 | 0.00 | 0.00 | 0.00 | 66 | 1019.2 |
| 20260905163434 | 86 | 80 | 3.0 | 8.0 | 0.00 | 0.00 | 0.00 | 65 | 1019.2 |
| 20260905163333 | 86 | 0 | 3.0 | 7.0 | 0.00 | 0.00 | 0.00 | 66 | 1019.2 |
| 20260905163235 | 86 | 0 | 3.0 | 9.0 | 0.00 | 0.00 | 0.00 | 68 | 1019.2 |
| 20260905163133 | 86 | 11 | 3.0 | 9.0 | 0.00 | 0.00 | 0.00 | 66 | 1019.3 |
| 20260905163032 | 86 | 11 | 3.0 | 9.0 | 0.00 | 0.00 | 0.00 | 67 | 1019.3 |
| 20260905162931 | 86 | 15 | 3.0 | 9.0 | 0.00 | 0.00 | 0.00 | 68 | 1019.3 |
| 20260905162904 | 85 | 54 | 3.0 | 9.0 | 0.00 | 0.00 | 0.00 | 67 | 1019.3 |
| 20260905162854 | 85 | 115 | 3.0 | 9.0 | 0.00 | 0.00 | 0.00 | 67 | 1019.3 |
| 20260905162632 | 85 | 84 | 3.0 | 9.0 | 0.00 | 0.00 | 0.00 | 68 | 1019.3 |
| 20260905162529 | 85 | 59 | 3.0 | 9.0 | 0.00 | 0.00 | 0.00 | 68 | 1019.3 |
| 20260905162429 | 85 | 82 | 3.0 | 9.0 | 0.00 | 0.00 | 0.00 | 67 | 1019.3 |
| 20260905162329 | 85 | 68 | 3.0 | 9.0 | 0.00 | 0.00 | 0.00 | 68 | 1019.3 |
| 20260905162229 | 85 | 67 | 3.0 | 8.0 | 0.00 | 0.00 | 0.00 | 67 | 1019.3 |
| 20260905162131 | 85 | 22 | 3.0 | 8.0 | 0.00 | 0.00 | 0.00 | 67 | 1019.3 |
| 20260905162105 | 85 | 65 | 3.0 | 8.0 | 0.00 | 0.00 | 0.00 | 69 | 1019.3 |
| 20260905162055 | 85 | 5 | 3.0 | 8.0 | 0.00 | 0.00 | 0.00 | 68 | 1019.3 |
| 20260905161828 | 85 | 9 | 2.0 | 7.0 | 0.00 | 0.00 | 0.00 | 69 | 1019.3 |
| 20260905161727 | 85 | 70 | 2.0 | 7.0 | 0.00 | 0.00 | 0.00 | 68 | 1019.3 |
| 20260905161628 | 85 | 46 | 2.0 | 7.0 | 0.00 | 0.00 | 0.00 | 69 | 1019.3 |
| 20260905161525 | 85 | 33 | 2.0 | 5.0 | 0.00 | 0.00 | 0.00 | 69 | 1019.3 |
| 20260905161420 | 85 | 77 | 2.0 | 5.0 | 0.00 | 0.00 | 0.00 | 70 | 1019.3 |
| 20260905161319 | 85 | 0 | 3.0 | 5.0 | 0.00 | 0.00 | 0.00 | 69 | 1019.4 |
| 20260905161220 | 85 | 0 | 3.0 | 7.0 | 0.00 | 0.00 | 0.00 | 68 | 1019.4 |
| 20260905161120 | 85 | 0 | 3.0 | 7.0 | 0.00 | 0.00 | 0.00 | 68 | 1019.4 |
| 20260905161022 | 85 | 342 | 3.0 | 7.0 | 0.00 | 0.00 | 0.00 | 68 | 1019.4 |
| 20260905160914 | 85 | 339 | 3.0 | 7.0 | 0.00 | 0.00 | 0.00 | 69 | 1019.4 |
| 20260905160813 | 85 | 70 | 3.0 | 7.0 | 0.00 | 0.00 | 0.00 | 69 | 1019.4 |
| 20260905160752 | 85 | 38 | 3.0 | 7.0 | 0.00 | 0.00 | 0.00 | 69 | 1019.3 |
| 20260905160740 | 85 | 44 | 3.0 | 7.0 | 0.00 | 0.00 | 0.00 | 69 | 1019.4 |
| 20260905160514 | 85 | 93 | 3.0 | 7.0 | 0.00 | 0.00 | 0.00 | 69 | 1019.4 |
| 20260905160403 | 85 | 61 | 3.0 | 8.0 | 0.00 | 0.00 | 0.00 | 70 | 1019.3 |
| 20260905160344 | 85 | 67 | 3.0 | 8.0 | 0.00 | 0.00 | 0.00 | 70 | 1019.3 |
| 20260905160328 | 85 | 44 | 3.0 | 8.0 | 0.00 | 0.00 | 0.00 | 68 | 1019.3 |
| 20260905160104 | 84 | 59 | 3.0 | 8.0 | 0.00 | 0.00 | 0.00 | 70 | 1019.3 |
| 20260905160006 | 84 | 76 | 3.0 | 8.0 | 0.00 | 0.00 | 0.00 | 70 | 1019.3 |
| 20260905155903 | 84 | 58 | 3.0 | 8.0 | 0.00 | 0.00 | 0.00 | 70 | 1019.3 |
| 20260905155805 | 84 | 61 | 3.0 | 8.0 | 0.00 | 0.00 | 0.00 | 68 | 1019.2 |
| 20260905155703 | 84 | 61 | 3.0 | 8.0 | 0.00 | 0.00 | 0.00 | 69 | 1019.4 |
| 20260905155603 | 85 | 36 | 2.0 | 8.0 | 0.00 | 0.00 | 0.00 | 70 | 1019.3 |
| 20260905155503 | 85 | 10 | 2.0 | 8.0 | 0.00 | 0.00 | 0.00 | 69 | 1019.3 |
| 20260905155408 | 85 | 42 | 2.0 | 6.0 | 0.00 | 0.00 | 0.00 | 68 | 1019.3 |
| 20260905155331 | 85 | 67 | 2.0 | 4.0 | 0.00 | 0.00 | 0.00 | 68 | 1019.3 |
| 20260905155322 | 85 | 69 | 2.0 | 4.0 | 0.00 | 0.00 | 0.00 | 69 | 1019.3 |
| 20260905155103 | 85 | 63 | 2.0 | 4.0 | 0.00 | 0.00 | 0.00 | 67 | 1019.3 |
| 20260905155004 | 85 | 9 | 2.0 | 4.0 | 0.00 | 0.00 | 0.00 | 69 | 1019.3 |
| 20260905154906 | 85 | 39 | 2.0 | 5.0 | 0.00 | 0.00 | 0.00 | 69 | 1019.3 |
| 20260905154803 | 85 | 39 | 2.0 | 5.0 | 0.00 | 0.00 | 0.00 | 68 | 1019.4 |
| 20260905154655 | 85 | 17 | 2.0 | 5.0 | 0.00 | 0.00 | 0.00 | 68 | 1019.4 |
| 20260905154556 | 85 | 51 | 2.0 | 5.0 | 0.00 | 0.00 | 0.00 | 68 | 1019.4 |
| 20260905154457 | 85 | 51 | 2.0 | 5.0 | 0.00 | 0.00 | 0.00 | 69 | 1019.3 |
| 20260905154356 | 85 | 13 | 2.0 | 5.0 | 0.00 | 0.00 | 0.00 | 69 | 1019.3 |
| 20260905154300 | 85 | 45 | 1.0 | 5.0 | 0.00 | 0.00 | 0.00 | 67 | 1019.3 |
| 20260905154155 | 85 | 74 | 1.0 | 5.0 | 0.00 | 0.00 | 0.00 | 68 | 1019.2 |
| 20260905154055 | 85 | 19 | 1.0 | 5.0 | 0.00 | 0.00 | 0.00 | 68 | 1019.3 |
| 20260905153957 | 85 | 34 | 1.0 | 5.0 | 0.00 | 0.00 | 0.00 | 69 | 1019.3 |
| 20260905153853 | 85 | 25 | 1.0 | 4.0 | 0.00 | 0.00 | 0.00 | 68 | 1019.3 |
| 20260905153751 | 85 | 68 | 1.0 | 4.0 | 0.00 | 0.00 | 0.00 | 67 | 1019.2 |
| 20260905153644 | 85 | 40 | 1.0 | 4.0 | 0.00 | 0.00 | 0.00 | 69 | 1019.3 |
| 20260905153545 | 85 | 49 | 2.0 | 5.0 | 0.00 | 0.00 | 0.00 | 68 | 1019.3 |
| 20260905153443 | 85 | 49 | 2.0 | 5.0 | 0.00 | 0.00 | 0.00 | 67 | 1019.3 |
| 20260905153418 | 85 | 49 | 2.0 | 5.0 | 0.00 | 0.00 | 0.00 | 68 | 1019.3 |
| 20260905153408 | 85 | 49 | 2.0 | 5.0 | 0.00 | 0.00 | 0.00 | 68 | 1019.3 |
| 20260905153135 | 85 | 73 | 2.0 | 5.0 | 0.00 | 0.00 | 0.00 | 69 | 1019.2 |
| 20260905153035 | 85 | 68 | 2.0 | 5.0 | 0.00 | 0.00 | 0.00 | 68 | 1019.3 |
| 20260905152940 | 85 | 325 | 2.0 | 6.0 | 0.00 | 0.00 | 0.00 | 67 | 1019.3 |
| 20260905152921 | 85 | 12 | 2.0 | 6.0 | 0.00 | 0.00 | 0.00 | 67 | 1019.3 |
| 20260905152908 | 85 | 5 | 2.0 | 6.0 | 0.00 | 0.00 | 0.00 | 67 | 1019.3 |
| 20260905152635 | 85 | 59 | 2.0 | 6.0 | 0.00 | 0.00 | 0.00 | 69 | 1019.3 |
| 20260905152536 | 85 | 46 | 2.0 | 6.0 | 0.00 | 0.00 | 0.00 | 68 | 1019.3 |
| 20260905152437 | 85 | 46 | 3.0 | 6.0 | 0.00 | 0.00 | 0.00 | 68 | 1019.4 |
| 20260905152337 | 85 | 44 | 3.0 | 6.0 | 0.00 | 0.00 | 0.00 | 66 | 1019.3 |
| 20260905152234 | 85 | 56 | 3.0 | 8.0 | 0.00 | 0.00 | 0.00 | 67 | 1019.4 |
| 20260905152143 | 85 | 38 | 3.0 | 8.0 | 0.00 | 0.00 | 0.00 | 67 | 1019.3 |
| 20260905152039 | 85 | 25 | 3.0 | 8.0 | 0.00 | 0.00 | 0.00 | 67 | 1019.3 |
| 20260905151936 | 85 | 16 | 3.0 | 8.0 | 0.00 | 0.00 | 0.00 | 66 | 1019.4 |
| 20260905151833 | 85 | 67 | 2.0 | 8.0 | 0.00 | 0.00 | 0.00 | 67 | 1019.3 |
| 20260905151738 | 85 | 55 | 3.0 | 8.0 | 0.00 | 0.00 | 0.00 | 68 | 1019.4 |
| 20260905151710 | 85 | 11 | 2.0 | 8.0 | 0.00 | 0.00 | 0.00 | 68 | 1019.4 |
| 20260905151658 | 85 | 112 | 3.0 | 8.0 | 0.00 | 0.00 | 0.00 | 67 | 1019.3 |
| 20260905151429 | 85 | 64 | 2.0 | 8.0 | 0.00 | 0.00 | 0.00 | 68 | 1019.4 |
| 20260905151335 | 84 | 47 | 2.0 | 8.0 | 0.00 | 0.00 | 0.00 | 68 | 1019.3 |
| 20260905151226 | 84 | 24 | 2.0 | 5.0 | 0.00 | 0.00 | 0.00 | 67 | 1019.4 |
| 20260905151150 | 84 | 34 | 1.0 | 5.0 | 0.00 | 0.00 | 0.00 | 67 | 1019.4 |
| 20260905151132 | 84 | 10 | 2.0 | 5.0 | 0.00 | 0.00 | 0.00 | 67 | 1019.4 |
| 20260905151118 | 84 | 34 | 1.0 | 5.0 | 0.00 | 0.00 | 0.00 | 68 | 1019.4 |
| 20260905151100 | 84 | 11 | 1.0 | 5.0 | 0.00 | 0.00 | 0.00 | 67 | 1019.4 |
| 20260905150751 | 84 | 74 | 1.0 | 6.0 | 0.00 | 0.00 | 0.00 | 70 | 1019.4 |
| 20260905150741 | 84 | 20 | 1.0 | 6.0 | 0.00 | 0.00 | 0.00 | 69 | 1019.3 |
| 20260905150521 | 84 | 73 | 1.0 | 6.0 | 0.00 | 0.00 | 0.00 | 71 | 1019.3 |
| 20260905150416 | 84 | 73 | 2.0 | 6.0 | 0.00 | 0.00 | 0.00 | 70 | 1019.3 |
| 20260905150317 | 84 | 75 | 2.0 | 6.0 | 0.00 | 0.00 | 0.00 | 70 | 1019.3 |
| 20260905150217 | 83 | 76 | 2.0 | 6.0 | 0.00 | 0.00 | 0.00 | 70 | 1019.3 |
| 20260905150115 | 83 | 76 | 2.0 | 6.0 | 0.00 | 0.00 | 0.00 | 71 | 1019.3 |
| 20260905150017 | 83 | 76 | 3.0 | 6.0 | 0.00 | 0.00 | 0.00 | 71 | 1019.2 |
| 20260905145957 | 83 | 86 | 3.0 | 6.0 | 0.00 | 0.00 | 0.00 | 72 | 1019.2 |
| 20260905145943 | 83 | 76 | 3.0 | 6.0 | 0.00 | 0.00 | 0.00 | 71 | 1019.3 |
| 20260905145712 | 83 | 9 | 3.0 | 6.0 | 0.00 | 0.00 | 0.00 | 71 | 1019.3 |
| 20260905145611 | 83 | 66 | 3.0 | 6.0 | 0.00 | 0.00 | 0.00 | 71 | 1019.3 |
| 20260905145511 | 83 | 98 | 3.0 | 6.0 | 0.00 | 0.00 | 0.00 | 70 | 1019.3 |
| 20260905145410 | 83 | 65 | 3.0 | 7.0 | 0.00 | 0.00 | 0.00 | 68 | 1019.3 |
| 20260905145312 | 83 | 54 | 3.0 | 7.0 | 0.00 | 0.00 | 0.00 | 69 | 1019.3 |
| 20260905145212 | 83 | 87 | 3.0 | 7.0 | 0.00 | 0.00 | 0.00 | 71 | 1019.3 |
| 20260905145113 | 83 | 89 | 3.0 | 7.0 | 0.00 | 0.00 | 0.00 | 72 | 1019.3 |
| 20260905145032 | 83 | 76 | 2.0 | 7.0 | 0.00 | 0.00 | 0.00 | 72 | 1019.3 |
| 20260905145019 | 83 | 69 | 2.0 | 7.0 | 0.00 | 0.00 | 0.00 | 72 | 1019.3 |
| 20260905144957 | 83 | 52 | 2.0 | 7.0 | 0.00 | 0.00 | 0.00 | 72 | 1019.3 |
| 20260905144834 | 83 | 67 | 2.0 | 7.0 | 0.00 | 0.00 | 0.00 | 71 | 1019.3 |
| 20260905144610 | 82 | 70 | 2.0 | 7.0 | 0.00 | 0.00 | 0.00 | 72 | 1019.3 |
| 20260905144541 | 82 | 76 | 3.0 | 6.0 | 0.00 | 0.00 | 0.00 | 72 | 1019.2 |
| 20260905144529 | 82 | 84 | 2.0 | 7.0 | 0.00 | 0.00 | 0.00 | 72 | 1019.3 |
| 20260905144342 | 82 | 63 | 3.0 | 6.0 | 0.00 | 0.00 | 0.00 | 73 | 1019.2 |
| 20260905144331 | 82 | 106 | 3.0 | 6.0 | 0.00 | 0.00 | 0.00 | 72 | 1019.2 |
| 20260905144109 | 82 | 62 | 3.0 | 6.0 | 0.00 | 0.00 | 0.00 | 73 | 1019.2 |
| 20260905144035 | 82 | 40 | 3.0 | 6.0 | 0.00 | 0.00 | 0.00 | 73 | 1019.2 |
| 20260905144026 | 82 | 64 | 3.0 | 6.0 | 0.00 | 0.00 | 0.00 | 73 | 1019.3 |
| 20260905143806 | 82 | 36 | 2.0 | 6.0 | 0.00 | 0.00 | 0.00 | 73 | 1019.2 |
| 20260905143705 | 82 | 52 | 2.0 | 6.0 | 0.00 | 0.00 | 0.00 | 73 | 1019.2 |
| 20260905143605 | 82 | 49 | 2.0 | 6.0 | 0.00 | 0.00 | 0.00 | 72 | 1019.2 |
| 20260905143529 | 82 | 58 | 2.0 | 4.0 | 0.00 | 0.00 | 0.00 | 73 | 1019.2 |
| 20260905143525 | 82 | 58 | 2.0 | 4.0 | 0.00 | 0.00 | 0.00 | 72 | 1019.2 |
| 20260905143511 | 82 | 55 | 2.0 | 6.0 | 0.00 | 0.00 | 0.00 | 73 | 1019.3 |
| 20260905143451 | 82 | 55 | 2.0 | 5.0 | 0.00 | 0.00 | 0.00 | 74 | 1019.3 |
| 20260905143141 | 82 | 73 | 2.0 | 4.0 | 0.00 | 0.00 | 0.00 | 73 | 1019.2 |
| 20260905143129 | 82 | 73 | 2.0 | 4.0 | 0.00 | 0.00 | 0.00 | 73 | 1019.2 |
| 20260905142902 | 82 | 58 | 2.0 | 3.0 | 0.00 | 0.00 | 0.00 | 74 | 1019.2 |
| 20260905142803 | 82 | 58 | 2.0 | 3.0 | 0.00 | 0.00 | 0.00 | 73 | 1019.2 |
| 20260905142659 | 82 | 58 | 2.0 | 5.0 | 0.00 | 0.00 | 0.00 | 73 | 1019.1 |
| 20260905142628 | 82 | 58 | 2.0 | 6.0 | 0.00 | 0.00 | 0.00 | 74 | 1019.2 |
| 20260905142617 | 82 | 58 | 2.0 | 5.0 | 0.00 | 0.00 | 0.00 | 73 | 1019.1 |
| 20260905142352 | 82 | 57 | 2.0 | 6.0 | 0.00 | 0.00 | 0.00 | 74 | 1019.2 |
| 20260905142254 | 82 | 59 | 2.0 | 6.0 | 0.00 | 0.00 | 0.00 | 73 | 1019.1 |
| 20260905142154 | 82 | 69 | 2.0 | 6.0 | 0.00 | 0.00 | 0.00 | 73 | 1019.2 |
| 20260905142053 | 82 | 69 | 2.0 | 6.0 | 0.00 | 0.00 | 0.00 | 73 | 1019.2 |
| 20260905141953 | 82 | 69 | 2.0 | 6.0 | 0.00 | 0.00 | 0.00 | 72 | 1019.2 |
| 20260905141853 | 82 | 71 | 2.0 | 6.0 | 0.00 | 0.00 | 0.00 | 73 | 1019.2 |
| 20260905141753 | 82 | 74 | 2.0 | 6.0 | 0.00 | 0.00 | 0.00 | 73 | 1019.1 |
| 20260905141654 | 82 | 58 | 2.0 | 6.0 | 0.00 | 0.00 | 0.00 | 73 | 1019.2 |
| 20260905141624 | 82 | 64 | 2.0 | 5.0 | 0.00 | 0.00 | 0.00 | 73 | 1019.1 |
| 20260905141617 | 82 | 58 | 2.0 | 6.0 | 0.00 | 0.00 | 0.00 | 72 | 1019.2 |
| 20260905141353 | 82 | 44 | 2.0 | 5.0 | 0.00 | 0.00 | 0.00 | 74 | 1019.1 |
| 20260905141254 | 82 | 59 | 2.0 | 5.0 | 0.00 | 0.00 | 0.00 | 74 | 1019.1 |
| 20260905141151 | 82 | 59 | 2.0 | 5.0 | 0.00 | 0.00 | 0.00 | 73 | 1019.1 |
| 20260905141051 | 82 | 59 | 2.0 | 5.0 | 0.00 | 0.00 | 0.00 | 73 | 1019.1 |
| 20260905140948 | 82 | 59 | 2.0 | 5.0 | 0.00 | 0.00 | 0.00 | 73 | 1019.1 |
| 20260905140849 | 82 | 59 | 2.0 | 5.0 | 0.00 | 0.00 | 0.00 | 73 | 1019.1 |
| 20260905140743 | 82 | 56 | 2.0 | 5.0 | 0.00 | 0.00 | 0.00 | 74 | 1019.2 |
| 20260905140641 | 82 | 73 | 2.0 | 5.0 | 0.00 | 0.00 | 0.00 | 72 | 1019.1 |
| 20260905140546 | 82 | 63 | 2.0 | 5.0 | 0.00 | 0.00 | 0.00 | 73 | 1019.1 |
| 20260905140442 | 82 | 46 | 2.0 | 5.0 | 0.00 | 0.00 | 0.00 | 73 | 1019.2 |
| 20260905140342 | 82 | 46 | 2.0 | 5.0 | 0.00 | 0.00 | 0.00 | 74 | 1019.2 |
| 20260905140243 | 82 | 30 | 2.0 | 5.0 | 0.00 | 0.00 | 0.00 | 74 | 1019.1 |
| 20260905140140 | 82 | 55 | 2.0 | 5.0 | 0.00 | 0.00 | 0.00 | 74 | 1019.1 |
| 20260905140107 | 81 | 47 | 1.0 | 3.0 | 0.00 | 0.00 | 0.00 | 73 | 1019.0 |
| 20260905140058 | 81 | 57 | 1.0 | 5.0 | 0.00 | 0.00 | 0.00 | 73 | 1019.1 |
| 20260905135927 | 81 | 46 | 2.0 | 5.0 | 0.00 | 0.00 | 0.00 | 74 | 1019.0 |
| 20260905135921 | 81 | 49 | 2.0 | 5.0 | 0.00 | 0.00 | 0.00 | 73 | 1019.0 |
| 20260905135916 | 81 | 46 | 2.0 | 5.0 | 0.00 | 0.00 | 0.00 | 74 | 1019.1 |
| 20260905135910 | 81 | 46 | 2.0 | 5.0 | 0.00 | 0.00 | 0.00 | 74 | 1019.0 |
| 20260905135856 | 81 | 46 | 2.0 | 3.0 | 0.00 | 0.00 | 0.00 | 73 | 1019.1 |
| 20260905135838 | 81 | 49 | 2.0 | 5.0 | 0.00 | 0.00 | 0.00 | 73 | 1019.0 |
| 20260905135557 | 81 | 28 | 2.0 | 5.0 | 0.00 | 0.00 | 0.00 | 74 | 1019.0 |
| 20260905135544 | 81 | 38 | 2.0 | 5.0 | 0.00 | 0.00 | 0.00 | 74 | 1019.1 |
| 20260905135518 | 81 | 46 | 2.0 | 5.0 | 0.00 | 0.00 | 0.00 | 74 | 1019.0 |
| 20260905135213 | 81 | 46 | 2.0 | 5.0 | 0.00 | 0.00 | 0.00 | 74 | 1019.0 |
| 20260905134828 | 81 | 33 | 2.0 | 5.0 | 0.00 | 0.00 | 0.00 | 75 | 1019.0 |
| 20260905134729 | 81 | 66 | 2.0 | 5.0 | 0.00 | 0.00 | 0.00 | 74 | 1019.0 |
| 20260905134634 | 81 | 57 | 2.0 | 5.0 | 0.00 | 0.00 | 0.00 | 74 | 1019.1 |
| 20260905134522 | 81 | 57 | 2.0 | 5.0 | 0.00 | 0.00 | 0.00 | 74 | 1019.1 |
| 20260905134422 | 81 | 57 | 2.0 | 5.0 | 0.00 | 0.00 | 0.00 | 74 | 1019.1 |
| 20260905134326 | 81 | 58 | 2.0 | 5.0 | 0.00 | 0.00 | 0.00 | 74 | 1019.1 |
| 20260905134221 | 81 | 62 | 2.0 | 5.0 | 0.00 | 0.00 | 0.00 | 74 | 1019.1 |
| 20260905134141 | 81 | 64 | 2.0 | 5.0 | 0.00 | 0.00 | 0.00 | 73 | 1019.2 |
| 20260905134036 | 81 | 65 | 2.0 | 5.0 | 0.00 | 0.00 | 0.00 | 73 | 1019.2 |
| 20260905134009 | 81 | 56 | 2.0 | 5.0 | 0.00 | 0.00 | 0.00 | 74 | 1019.3 |
| 20260905133957 | 81 | 56 | 2.0 | 5.0 | 0.00 | 0.00 | 0.00 | 74 | 1019.2 |
| 20260905133720 | 81 | 56 | 2.0 | 5.0 | 0.00 | 0.00 | 0.00 | 73 | 1019.2 |
| 20260905133621 | 81 | 34 | 2.0 | 5.0 | 0.00 | 0.00 | 0.00 | 73 | 1019.2 |
| 20260905133550 | 81 | 9 | 2.0 | 5.0 | 0.00 | 0.00 | 0.00 | 74 | 1019.2 |
| 20260905133541 | 81 | 9 | 2.0 | 5.0 | 0.00 | 0.00 | 0.00 | 73 | 1019.2 |
| 20260905133351 | 80 | 59 | 2.0 | 5.0 | 0.00 | 0.00 | 0.00 | 73 | 1019.3 |
| 20260905133346 | 81 | 9 | 2.0 | 5.0 | 0.00 | 0.00 | 0.00 | 74 | 1019.3 |
| 20260905133156 | 80 | 48 | 2.0 | 5.0 | 0.00 | 0.00 | 0.00 | 73 | 1019.3 |
| 20260905133030 | 80 | 36 | 2.0 | 5.0 | 0.00 | 0.00 | 0.00 | 73 | 1019.3 |
| 20260905133018 | 80 | 34 | 2.0 | 5.0 | 0.00 | 0.00 | 0.00 | 73 | 1019.4 |
| 20260905133005 | 80 | 36 | 2.0 | 5.0 | 0.00 | 0.00 | 0.00 | 72 | 1019.4 |
| 20260905132740 | 80 | 53 | 1.0 | 5.0 | 0.00 | 0.00 | 0.00 | 74 | 1019.4 |
| 20260905132732 | 80 | 53 | 2.0 | 5.0 | 0.00 | 0.00 | 0.00 | 74 | 1019.4 |
| 20260905132549 | 80 | 43 | 1.0 | 3.0 | 0.00 | 0.00 | 0.00 | 74 | 1019.5 |
| 20260905132535 | 80 | 26 | 1.0 | 3.0 | 0.00 | 0.00 | 0.00 | 74 | 1019.4 |
| 20260905132310 | 80 | 43 | 1.0 | 3.0 | 0.00 | 0.00 | 0.00 | 74 | 1019.4 |
| 20260905132210 | 80 | 60 | 1.0 | 3.0 | 0.00 | 0.00 | 0.00 | 74 | 1019.4 |
| 20260905132108 | 80 | 60 | 2.0 | 3.0 | 0.00 | 0.00 | 0.00 | 74 | 1019.4 |
| 20260905132009 | 80 | 60 | 2.0 | 3.0 | 0.00 | 0.00 | 0.00 | 74 | 1019.4 |
| 20260905131919 | 80 | 60 | 2.0 | 3.0 | 0.00 | 0.00 | 0.00 | 74 | 1019.4 |
| 20260905131847 | 80 | 60 | 2.0 | 3.0 | 0.00 | 0.00 | 0.00 | 73 | 1019.4 |
| 20260905131736 | 80 | 60 | 2.0 | 4.0 | 0.00 | 0.00 | 0.00 | 73 | 1019.5 |
| 20260905131726 | 80 | 60 | 2.0 | 3.0 | 0.00 | 0.00 | 0.00 | 73 | 1019.5 |
| 20260905131508 | 80 | 60 | 2.0 | 8.0 | 0.00 | 0.00 | 0.00 | 73 | 1019.5 |
| 20260905131407 | 80 | 60 | 2.0 | 8.0 | 0.00 | 0.00 | 0.00 | 73 | 1019.5 |
| 20260905131308 | 80 | 58 | 2.0 | 8.0 | 0.00 | 0.00 | 0.00 | 74 | 1019.5 |
| 20260905131207 | 80 | 23 | 2.0 | 8.0 | 0.00 | 0.00 | 0.00 | 74 | 1019.5 |
| 20260905131106 | 80 | 23 | 2.0 | 8.0 | 0.00 | 0.00 | 0.00 | 73 | 1019.5 |
| 20260905131008 | 80 | 5 | 2.0 | 8.0 | 0.00 | 0.00 | 0.00 | 73 | 1019.6 |
| 20260905130910 | 80 | 60 | 2.0 | 8.0 | 0.00 | 0.00 | 0.00 | 73 | 1019.5 |
| 20260905130811 | 80 | 60 | 2.0 | 8.0 | 0.00 | 0.00 | 0.00 | 74 | 1019.5 |
| 20260905130706 | 80 | 61 | 2.0 | 8.0 | 0.00 | 0.00 | 0.00 | 73 | 1019.5 |
| 20260905130606 | 80 | 19 | 2.0 | 8.0 | 0.00 | 0.00 | 0.00 | 74 | 1019.5 |
| 20260905130508 | 80 | 44 | 2.0 | 4.0 | 0.00 | 0.00 | 0.00 | 74 | 1019.5 |
| 20260905130407 | 80 | 44 | 2.0 | 4.0 | 0.00 | 0.00 | 0.00 | 74 | 1019.5 |
| 20260905130357 | 80 | 46 | 2.0 | 5.0 | 0.00 | 0.00 | 0.00 | 74 | 1019.5 |
| 20260905130352 | 80 | 42 | 2.0 | 7.0 | 0.00 | 0.00 | 0.00 | 74 | 1019.5 |
| 20260905130346 | 80 | 51 | 2.0 | 7.0 | 0.00 | 0.00 | 0.00 | 74 | 1019.4 |
| 20260905130335 | 80 | 42 | 2.0 | 4.0 | 0.00 | 0.00 | 0.00 | 74 | 1019.5 |
| 20260905130151 | 80 | 51 | 2.0 | 7.0 | 0.00 | 0.00 | 0.00 | 74 | 1019.5 |
| 20260905125808 | 80 | 50 | 2.0 | 7.0 | 0.00 | 0.00 | 0.00 | 74 | 1019.5 |
| 20260905125731 | 80 | 23 | 2.0 | 7.0 | 0.00 | 0.00 | 0.00 | 73 | 1019.5 |
| 20260905125726 | 80 | 0 | 2.0 | 7.0 | 0.00 | 0.00 | 0.00 | 73 | 1019.5 |
| 20260905125712 | 80 | 43 | 2.0 | 7.0 | 0.00 | 0.00 | 0.00 | 73 | 1019.5 |
| 20260905125651 | 80 | 42 | 2.0 | 7.0 | 0.00 | 0.00 | 0.00 | 73 | 1019.5 |
| 20260905125306 | 80 | 61 | 2.0 | 7.0 | 0.00 | 0.00 | 0.00 | 73 | 1019.5 |
| 20260905125234 | 80 | 24 | 2.0 | 5.0 | 0.00 | 0.00 | 0.00 | 73 | 1019.5 |
| 20260905125224 | 80 | 11 | 2.0 | 7.0 | 0.00 | 0.00 | 0.00 | 73 | 1019.5 |
| 20260905125002 | 80 | 22 | 2.0 | 5.0 | 0.00 | 0.00 | 0.00 | 73 | 1019.5 |
| 20260905124904 | 80 | 15 | 2.0 | 5.0 | 0.00 | 0.00 | 0.00 | 73 | 1019.5 |
| 20260905124802 | 80 | 12 | 2.0 | 5.0 | 0.00 | 0.00 | 0.00 | 73 | 1019.5 |
| 20260905124704 | 80 | 12 | 2.0 | 5.0 | 0.00 | 0.00 | 0.00 | 72 | 1019.5 |
| 20260905124603 | 80 | 0 | 2.0 | 5.0 | 0.00 | 0.00 | 0.00 | 73 | 1019.4 |
| 20260905124504 | 80 | 36 | 2.0 | 5.0 | 0.00 | 0.00 | 0.00 | 73 | 1019.5 |
| 20260905124403 | 80 | 23 | 2.0 | 5.0 | 0.00 | 0.00 | 0.00 | 73 | 1019.5 |
| 20260905124302 | 80 | 15 | 2.0 | 5.0 | 0.00 | 0.00 | 0.00 | 73 | 1019.5 |
| 20260905124255 | 79 | 47 | 2.0 | 4.0 | 0.00 | 0.00 | 0.00 | 73 | 1019.4 |
| 20260905124251 | 79 | 57 | 2.0 | 4.0 | 0.00 | 0.00 | 0.00 | 73 | 1019.5 |
| 20260905124245 | 79 | 13 | 2.0 | 4.0 | 0.00 | 0.00 | 0.00 | 73 | 1019.4 |
| 20260905124228 | 80 | 48 | 2.0 | 5.0 | 0.00 | 0.00 | 0.00 | 73 | 1019.5 |
| 20260905124207 | 79 | 48 | 2.0 | 4.0 | 0.00 | 0.00 | 0.00 | 73 | 1019.4 |
| 20260905123735 | 79 | 24 | 2.0 | 5.0 | 0.00 | 0.00 | 0.00 | 73 | 1019.4 |
| 20260905123726 | 79 | 24 | 2.0 | 5.0 | 0.00 | 0.00 | 0.00 | 73 | 1019.4 |
| 20260905123504 | 79 | 35 | 2.0 | 5.0 | 0.00 | 0.00 | 0.00 | 73 | 1019.4 |
| 20260905123402 | 79 | 33 | 2.0 | 5.0 | 0.00 | 0.00 | 0.00 | 73 | 1019.4 |
| 20260905123304 | 79 | 54 | 2.0 | 5.0 | 0.00 | 0.00 | 0.00 | 73 | 1019.3 |
| 20260905123204 | 79 | 54 | 2.0 | 5.0 | 0.00 | 0.00 | 0.00 | 73 | 1019.5 |
| 20260905123104 | 79 | 17 | 2.0 | 5.0 | 0.00 | 0.00 | 0.00 | 73 | 1019.4 |
| 20260905123008 | 79 | 16 | 2.0 | 5.0 | 0.00 | 0.00 | 0.00 | 73 | 1019.4 |
| 20260905122902 | 79 | 5 | 2.0 | 5.0 | 0.00 | 0.00 | 0.00 | 73 | 1019.4 |
| 20260905122803 | 79 | 21 | 2.0 | 5.0 | 0.00 | 0.00 | 0.00 | 73 | 1019.3 |
| 20260905122709 | 79 | 5 | 2.0 | 5.0 | 0.00 | 0.00 | 0.00 | 73 | 1019.4 |
| 20260905122637 | 79 | 11 | 2.0 | 5.0 | 0.00 | 0.00 | 0.00 | 73 | 1019.4 |
| 20260905122626 | 79 | 12 | 2.0 | 5.0 | 0.00 | 0.00 | 0.00 | 73 | 1019.3 |
| 20260905122404 | 79 | 32 | 2.0 | 5.0 | 0.00 | 0.00 | 0.00 | 73 | 1019.3 |
| 20260905122306 | 79 | 5 | 2.0 | 5.0 | 0.00 | 0.00 | 0.00 | 73 | 1019.2 |
| 20260905122202 | 79 | 5 | 2.0 | 5.0 | 0.00 | 0.00 | 0.00 | 73 | 1019.2 |
| 20260905122103 | 79 | 5 | 2.0 | 5.0 | 0.00 | 0.00 | 0.00 | 73 | 1019.3 |
| 20260905122003 | 79 | 5 | 2.0 | 5.0 | 0.00 | 0.00 | 0.00 | 73 | 1019.3 |
| 20260905121903 | 79 | 19 | 2.0 | 4.0 | 0.00 | 0.00 | 0.00 | 73 | 1019.2 |
| 20260905121803 | 79 | 19 | 2.0 | 4.0 | 0.00 | 0.00 | 0.00 | 73 | 1019.2 |
| 20260905121702 | 79 | 19 | 2.0 | 4.0 | 0.00 | 0.00 | 0.00 | 73 | 1019.2 |
| 20260905121603 | 79 | 18 | 2.0 | 4.0 | 0.00 | 0.00 | 0.00 | 73 | 1019.2 |
| 20260905121502 | 79 | 19 | 2.0 | 4.0 | 0.00 | 0.00 | 0.00 | 73 | 1019.2 |
| 20260905121404 | 79 | 19 | 2.0 | 4.0 | 0.00 | 0.00 | 0.00 | 73 | 1019.3 |
| 20260905121302 | 79 | 19 | 2.0 | 4.0 | 0.00 | 0.00 | 0.00 | 72 | 1019.2 |
| 20260905121204 | 79 | 19 | 2.0 | 4.0 | 0.00 | 0.00 | 0.00 | 73 | 1019.2 |
| 20260905121102 | 79 | 13 | 2.0 | 4.0 | 0.00 | 0.00 | 0.00 | 73 | 1019.2 |
| 20260905121002 | 79 | 13 | 2.0 | 4.0 | 0.00 | 0.00 | 0.00 | 73 | 1019.3 |
| 20260905120921 | 79 | 11 | 2.0 | 4.0 | 0.00 | 0.00 | 0.00 | 73 | 1019.2 |
| 20260905120916 | 79 | 15 | 2.0 | 4.0 | 0.00 | 0.00 | 0.00 | 73 | 1019.2 |
| 20260905120906 | 79 | 10 | 2.0 | 4.0 | 0.00 | 0.00 | 0.00 | 73 | 1019.2 |
| 20260905120844 | 79 | 9 | 2.0 | 4.0 | 0.00 | 0.00 | 0.00 | 73 | 1019.2 |
| 20260905120502 | 79 | 28 | 2.0 | 4.0 | 0.00 | 0.00 | 0.00 | 73 | 1019.1 |
| 20260905120427 | 79 | 28 | 2.0 | 4.0 | 0.00 | 0.00 | 0.00 | 73 | 1019.1 |
| 20260905120420 | 79 | 28 | 2.0 | 4.0 | 0.00 | 0.00 | 0.00 | 73 | 1019.1 |
| 20260905120203 | 79 | 17 | 2.0 | 4.0 | 0.00 | 0.00 | 0.00 | 73 | 1019.1 |
| 20260905120056 | 79 | 18 | 2.0 | 4.0 | 0.00 | 0.00 | 0.00 | 73 | 1019.1 |
| 20260905115956 | 79 | 18 | 2.0 | 4.0 | 0.00 | 0.00 | 0.00 | 73 | 1019.0 |
| 20260905115933 | 79 | 18 | 2.0 | 4.0 | 0.00 | 0.00 | 0.00 | 72 | 1019.0 |
| 20260905115919 | 79 | 18 | 2.0 | 4.0 | 0.00 | 0.00 | 0.00 | 73 | 1019.1 |
| 20260905115653 | 79 | 18 | 2.0 | 4.0 | 0.00 | 0.00 | 0.00 | 73 | 1019.0 |
| 20260905115548 | 79 | 17 | 2.0 | 4.0 | 0.00 | 0.00 | 0.00 | 73 | 1019.0 |
| 20260905115448 | 79 | 17 | 2.0 | 4.0 | 0.00 | 0.00 | 0.00 | 73 | 1019.0 |
| 20260905115348 | 79 | 17 | 2.0 | 4.0 | 0.00 | 0.00 | 0.00 | 73 | 1019.0 |
| 20260905115313 | 79 | 17 | 2.0 | 4.0 | 0.00 | 0.00 | 0.00 | 73 | 1019.0 |
| 20260905115306 | 79 | 17 | 2.0 | 4.0 | 0.00 | 0.00 | 0.00 | 73 | 1019.0 |
| 20260905115041 | 79 | 17 | 2.0 | 4.0 | 0.00 | 0.00 | 0.00 | 73 | 1019.1 |
| 20260905115014 | 79 | 17 | 2.0 | 4.0 | 0.00 | 0.00 | 0.00 | 73 | 1019.0 |
| 20260905115003 | 79 | 17 | 2.0 | 4.0 | 0.00 | 0.00 | 0.00 | 73 | 1019.0 |
| 20260905114741 | 79 | 17 | 2.0 | 4.0 | 0.00 | 0.00 | 0.00 | 73 | 1019.0 |
| 20260905114710 | 79 | 19 | 2.0 | 4.0 | 0.00 | 0.00 | 0.00 | 73 | 1019.0 |
| 20260905114659 | 79 | 19 | 2.0 | 4.0 | 0.00 | 0.00 | 0.00 | 73 | 1019.0 |
| 20260905114436 | 79 | 19 | 2.0 | 4.0 | 0.00 | 0.00 | 0.00 | 73 | 1019.0 |
| 20260905114335 | 78 | 19 | 2.0 | 4.0 | 0.00 | 0.00 | 0.00 | 73 | 1019.0 |
| 20260905114227 | 78 | 19 | 2.0 | 4.0 | 0.00 | 0.00 | 0.00 | 73 | 1018.9 |
| 20260905114126 | 78 | 15 | 2.0 | 4.0 | 0.00 | 0.00 | 0.00 | 73 | 1018.9 |
| 20260905114027 | 78 | 15 | 2.0 | 4.0 | 0.00 | 0.00 | 0.00 | 73 | 1018.9 |
| 20260905113928 | 78 | 13 | 2.0 | 4.0 | 0.00 | 0.00 | 0.00 | 73 | 1018.9 |
| 20260905113853 | 78 | 13 | 2.0 | 4.0 | 0.00 | 0.00 | 0.00 | 73 | 1018.8 |
| 20260905113844 | 78 | 13 | 2.0 | 4.0 | 0.00 | 0.00 | 0.00 | 73 | 1018.9 |
| 20260905113622 | 78 | 13 | 2.0 | 4.0 | 0.00 | 0.00 | 0.00 | 72 | 1018.8 |
| 20260905113520 | 78 | 13 | 2.0 | 4.0 | 0.00 | 0.00 | 0.00 | 72 | 1018.8 |
| 20260905113420 | 78 | 13 | 2.0 | 4.0 | 0.00 | 0.00 | 0.00 | 72 | 1018.8 |
| 20260905113319 | 78 | 13 | 1.0 | 4.0 | 0.00 | 0.00 | 0.00 | 72 | 1018.8 |
| 20260905113215 | 78 | 13 | 1.0 | 3.0 | 0.00 | 0.00 | 0.00 | 72 | 1018.8 |
| 20260905113145 | 78 | 13 | 1.0 | 3.0 | 0.00 | 0.00 | 0.00 | 72 | 1018.7 |
| 20260905113136 | 78 | 13 | 1.0 | 3.0 | 0.00 | 0.00 | 0.00 | 72 | 1018.8 |
| 20260905112912 | 78 | 13 | 1.0 | 3.0 | 0.00 | 0.00 | 0.00 | 72 | 1018.7 |
| 20260905112813 | 78 | 13 | 1.0 | 3.0 | 0.00 | 0.00 | 0.00 | 73 | 1018.7 |
| 20260905112701 | 78 | 21 | 1.0 | 2.0 | 0.00 | 0.00 | 0.00 | 73 | 1018.7 |
| 20260905112558 | 78 | 21 | 1.0 | 2.0 | 0.00 | 0.00 | 0.00 | 73 | 1018.6 |
| 20260905112504 | 78 | 21 | 1.0 | 2.0 | 0.00 | 0.00 | 0.00 | 73 | 1018.6 |
| 20260905112358 | 78 | 21 | 1.0 | 2.0 | 0.00 | 0.00 | 0.00 | 73 | 1018.6 |
| 20260905112300 | 78 | 21 | 1.0 | 2.0 | 0.00 | 0.00 | 0.00 | 73 | 1018.6 |
| 20260905112153 | 78 | 21 | 1.0 | 2.0 | 0.00 | 0.00 | 0.00 | 73 | 1018.6 |
| 20260905112052 | 78 | 21 | 1.0 | 3.0 | 0.00 | 0.00 | 0.00 | 73 | 1018.7 |
| 20260905111957 | 78 | 21 | 1.0 | 3.0 | 0.00 | 0.00 | 0.00 | 73 | 1018.7 |
| 20260905111853 | 78 | 21 | 1.0 | 3.0 | 0.00 | 0.00 | 0.00 | 73 | 1018.6 |
| 20260905111753 | 78 | 21 | 1.0 | 3.0 | 0.00 | 0.00 | 0.00 | 73 | 1018.6 |
| 20260905111652 | 78 | 21 | 1.0 | 3.0 | 0.00 | 0.00 | 0.00 | 73 | 1018.6 |
| 20260905111551 | 78 | 21 | 1.0 | 3.0 | 0.00 | 0.00 | 0.00 | 73 | 1018.6 |
| 20260905111451 | 78 | 21 | 2.0 | 3.0 | 0.00 | 0.00 | 0.00 | 73 | 1018.5 |
| 20260905111428 | 78 | 21 | 2.0 | 3.0 | 0.00 | 0.00 | 0.00 | 73 | 1018.5 |
| 20260905111417 | 78 | 21 | 2.0 | 3.0 | 0.00 | 0.00 | 0.00 | 73 | 1018.5 |
| 20260905111140 | 78 | 21 | 2.0 | 3.0 | 0.00 | 0.00 | 0.00 | 73 | 1018.5 |
| 20260905111115 | 78 | 21 | 2.0 | 3.0 | 0.00 | 0.00 | 0.00 | 73 | 1018.4 |
| 20260905111105 | 78 | 21 | 2.0 | 3.0 | 0.00 | 0.00 | 0.00 | 73 | 1018.4 |
| 20260905110836 | 78 | 21 | 2.0 | 3.0 | 0.00 | 0.00 | 0.00 | 73 | 1018.4 |
| 20260905110743 | 78 | 21 | 2.0 | 3.0 | 0.00 | 0.00 | 0.00 | 73 | 1018.4 |
| 20260905110718 | 78 | 22 | 2.0 | 3.0 | 0.00 | 0.00 | 0.00 | 73 | 1018.4 |
| 20260905110704 | 78 | 22 | 2.0 | 3.0 | 0.00 | 0.00 | 0.00 | 72 | 1018.2 |
| 20260905110512 | 78 | 22 | 2.0 | 3.0 | 0.00 | 0.00 | 0.00 | 73 | 1018.2 |
| 20260905110452 | 78 | 22 | 2.0 | 3.0 | 0.00 | 0.00 | 0.00 | 73 | 1018.2 |
| 20260905110423 | 78 | 22 | 2.0 | 3.0 | 0.00 | 0.00 | 0.00 | 73 | 1018.2 |
| 20260905110131 | 78 | 22 | 2.0 | 3.0 | 0.00 | 0.00 | 0.00 | 73 | 1018.2 |
| 20260905110030 | 78 | 22 | 2.0 | 3.0 | 0.00 | 0.00 | 0.00 | 73 | 1018.2 |
| 20260905105928 | 78 | 22 | 2.0 | 3.0 | 0.00 | 0.00 | 0.00 | 73 | 1018.2 |
| 20260905105827 | 78 | 22 | 2.0 | 4.0 | 0.00 | 0.00 | 0.00 | 73 | 1018.2 |
| 20260905105725 | 78 | 22 | 2.0 | 4.0 | 0.00 | 0.00 | 0.00 | 73 | 1018.2 |
| 20260905105621 | 78 | 22 | 2.0 | 4.0 | 0.00 | 0.00 | 0.00 | 73 | 1018.2 |
| 20260905105523 | 78 | 22 | 2.0 | 4.0 | 0.00 | 0.00 | 0.00 | 73 | 1018.2 |
| 20260905105420 | 78 | 22 | 2.0 | 4.0 | 0.00 | 0.00 | 0.00 | 73 | 1018.2 |
| 20260905105318 | 78 | 21 | 2.0 | 4.0 | 0.00 | 0.00 | 0.00 | 73 | 1018.2 |
| 20260905105218 | 78 | 21 | 2.0 | 4.0 | 0.00 | 0.00 | 0.00 | 73 | 1018.2 |
| 20260905105119 | 78 | 21 | 2.0 | 4.0 | 0.00 | 0.00 | 0.00 | 73 | 1018.2 |
| 20260905105051 | 78 | 21 | 2.0 | 4.0 | 0.00 | 0.00 | 0.00 | 73 | 1018.2 |
| 20260905105039 | 78 | 21 | 2.0 | 4.0 | 0.00 | 0.00 | 0.00 | 73 | 1018.2 |
| 20260905104823 | 78 | 21 | 2.0 | 4.0 | 0.00 | 0.00 | 0.00 | 73 | 1018.2 |
| 20260905104809 | 78 | 18 | 2.0 | 4.0 | 0.00 | 0.00 | 0.00 | 73 | 1018.2 |
| 20260905104752 | 78 | 21 | 2.0 | 4.0 | 0.00 | 0.00 | 0.00 | 73 | 1018.1 |
| 20260905104556 | 78 | 5 | 2.0 | 4.0 | 0.00 | 0.00 | 0.00 | 73 | 1018.1 |
| 20260905104536 | 78 | 18 | 2.0 | 4.0 | 0.00 | 0.00 | 0.00 | 73 | 1018.1 |
| 20260905104517 | 78 | 16 | 2.0 | 4.0 | 0.00 | 0.00 | 0.00 | 73 | 1018.1 |
| 20260905104344 | 78 | 16 | 2.0 | 4.0 | 0.00 | 0.00 | 0.00 | 73 | 1018.1 |
| 20260905104248 | 78 | 16 | 2.0 | 4.0 | 0.00 | 0.00 | 0.00 | 73 | 1018.2 |
| 20260905104012 | 78 | 5 | 2.0 | 4.0 | 0.00 | 0.00 | 0.00 | 73 | 1018.1 |
| 20260905103907 | 78 | 5 | 2.0 | 4.0 | 0.00 | 0.00 | 0.00 | 73 | 1018.1 |
| 20260905103808 | 78 | 5 | 2.0 | 4.0 | 0.00 | 0.00 | 0.00 | 73 | 1018.1 |
| 20260905103708 | 78 | 5 | 2.0 | 4.0 | 0.00 | 0.00 | 0.00 | 73 | 1018.1 |
| 20260905103606 | 79 | 5 | 2.0 | 4.0 | 0.00 | 0.00 | 0.00 | 73 | 1018.1 |
| 20260905103507 | 79 | 5 | 2.0 | 4.0 | 0.00 | 0.00 | 0.00 | 73 | 1018.1 |
| 20260905103401 | 79 | 5 | 3.0 | 4.0 | 0.00 | 0.00 | 0.00 | 73 | 1018.1 |
| 20260905103259 | 79 | 5 | 3.0 | 4.0 | 0.00 | 0.00 | 0.00 | 73 | 1018.1 |
| 20260905103202 | 79 | 5 | 3.0 | 4.0 | 0.00 | 0.00 | 0.00 | 72 | 1018.1 |
| 20260905103136 | 79 | 5 | 3.0 | 4.0 | 0.00 | 0.00 | 0.00 | 72 | 1018.1 |
| 20260905103124 | 79 | 5 | 3.0 | 4.0 | 0.00 | 0.00 | 0.00 | 72 | 1018.1 |
| 20260905102857 | 79 | 0 | 3.0 | 5.0 | 0.00 | 0.00 | 0.00 | 72 | 1018.1 |
| 20260905102755 | 79 | 355 | 3.0 | 5.0 | 0.00 | 0.00 | 0.00 | 72 | 1018.1 |
| 20260905102652 | 79 | 355 | 3.0 | 5.0 | 0.00 | 0.00 | 0.00 | 72 | 1018.1 |
| 20260905102552 | 79 | 17 | 3.0 | 5.0 | 0.00 | 0.00 | 0.00 | 71 | 1018.1 |
| 20260905102453 | 79 | 19 | 3.0 | 5.0 | 0.00 | 0.00 | 0.00 | 71 | 1018.1 |
| 20260905102349 | 79 | 20 | 3.0 | 5.0 | 0.00 | 0.00 | 0.00 | 71 | 1018.1 |
| 20260905102257 | 79 | 5 | 3.0 | 5.0 | 0.00 | 0.00 | 0.00 | 71 | 1018.0 |
| 20260905102149 | 79 | 28 | 3.0 | 5.0 | 0.00 | 0.00 | 0.00 | 71 | 1018.0 |
| 20260905102119 | 79 | 355 | 3.0 | 5.0 | 0.00 | 0.00 | 0.00 | 70 | 1018.0 |
| 20260905102109 | 79 | 5 | 3.0 | 5.0 | 0.00 | 0.00 | 0.00 | 71 | 1018.1 |
| 20260905101844 | 79 | 355 | 3.0 | 5.0 | 0.00 | 0.00 | 0.00 | 70 | 1018.0 |
| 20260905101744 | 79 | 18 | 3.0 | 5.0 | 0.00 | 0.00 | 0.00 | 70 | 1018.1 |
| 20260905101646 | 79 | 12 | 3.0 | 5.0 | 0.00 | 0.00 | 0.00 | 70 | 1018.0 |
| 20260905101619 | 79 | 5 | 3.0 | 5.0 | 0.00 | 0.00 | 0.00 | 70 | 1018.0 |
| 20260905101606 | 80 | 5 | 3.0 | 5.0 | 0.00 | 0.00 | 0.00 | 70 | 1018.0 |
| 20260905101349 | 80 | 333 | 3.0 | 5.0 | 0.00 | 0.00 | 0.00 | 70 | 1018.0 |
| 20260905101244 | 80 | 348 | 3.0 | 5.0 | 0.00 | 0.00 | 0.00 | 70 | 1018.1 |
| 20260905101144 | 80 | 355 | 3.0 | 6.0 | 0.00 | 0.00 | 0.00 | 70 | 1018.0 |
| 20260905101042 | 80 | 355 | 3.0 | 6.0 | 0.00 | 0.00 | 0.00 | 70 | 1018.0 |
| 20260905100943 | 80 | 5 | 3.0 | 6.0 | 0.00 | 0.00 | 0.00 | 70 | 1018.0 |
| 20260905100853 | 79 | 0 | 3.0 | 6.0 | 0.00 | 0.00 | 0.00 | 70 | 1018.0 |
| 20260905100821 | 79 | 347 | 3.0 | 6.0 | 0.00 | 0.00 | 0.00 | 70 | 1017.9 |
| 20260905100817 | 80 | 346 | 3.0 | 6.0 | 0.00 | 0.00 | 0.00 | 70 | 1018.0 |
| 20260905100811 | 80 | 342 | 3.0 | 5.0 | 0.00 | 0.00 | 0.00 | 70 | 1018.0 |
| 20260905100757 | 80 | 351 | 3.0 | 6.0 | 0.00 | 0.00 | 0.00 | 70 | 1018.0 |
| 20260905100723 | 80 | 355 | 2.0 | 5.0 | 0.00 | 0.00 | 0.00 | 70 | 1018.0 |
| 20260905100711 | 80 | 5 | 3.0 | 6.0 | 0.00 | 0.00 | 0.00 | 70 | 1017.9 |
| 20260905100515 | 79 | 338 | 3.0 | 6.0 | 0.00 | 0.00 | 0.00 | 70 | 1018.0 |
| 20260905100444 | 80 | 345 | 3.0 | 6.0 | 0.00 | 0.00 | 0.00 | 70 | 1018.0 |
| 20260905095931 | 80 | 355 | 2.0 | 5.0 | 0.00 | 0.00 | 0.00 | 70 | 1017.9 |
| 20260905095832 | 80 | 340 | 2.0 | 4.0 | 0.00 | 0.00 | 0.00 | 69 | 1018.0 |
| 20260905095733 | 80 | 355 | 3.0 | 5.0 | 0.00 | 0.00 | 0.00 | 69 | 1017.9 |
| 20260905095644 | 80 | 0 | 3.0 | 5.0 | 0.00 | 0.00 | 0.00 | 69 | 1018.0 |
| 20260905095626 | 80 | 5 | 3.0 | 5.0 | 0.00 | 0.00 | 0.00 | 69 | 1017.9 |
| 20260905095553 | 80 | 0 | 3.0 | 5.0 | 0.00 | 0.00 | 0.00 | 69 | 1018.0 |
| 20260905095532 | 80 | 0 | 3.0 | 5.0 | 0.00 | 0.00 | 0.00 | 69 | 1018.0 |
| 20260905095435 | 80 | 0 | 3.0 | 5.0 | 0.00 | 0.00 | 0.00 | 69 | 1018.0 |
| 20260905095320 | 80 | 11 | 3.0 | 5.0 | 0.00 | 0.00 | 0.00 | 68 | 1018.0 |
| 20260905095221 | 80 | 12 | 3.0 | 5.0 | 0.00 | 0.00 | 0.00 | 68 | 1017.9 |
| 20260905095122 | 80 | 12 | 3.0 | 5.0 | 0.00 | 0.00 | 0.00 | 68 | 1017.9 |
| 20260905095026 | 80 | 0 | 3.0 | 5.0 | 0.00 | 0.00 | 0.00 | 68 | 1017.9 |
| 20260905095014 | 80 | 5 | 3.0 | 5.0 | 0.00 | 0.00 | 0.00 | 68 | 1017.9 |
| 20260905094956 | 80 | 5 | 3.0 | 5.0 | 0.00 | 0.00 | 0.00 | 68 | 1017.8 |
| 20260905094755 | 80 | 5 | 2.0 | 5.0 | 0.00 | 0.00 | 0.00 | 67 | 1017.9 |
| 20260905094749 | 80 | 350 | 2.0 | 5.0 | 0.00 | 0.00 | 0.00 | 67 | 1017.8 |
| 20260905094731 | 80 | 347 | 3.0 | 5.0 | 0.00 | 0.00 | 0.00 | 68 | 1017.9 |
| 20260905094704 | 80 | 5 | 2.0 | 5.0 | 0.00 | 0.00 | 0.00 | 67 | 1017.9 |
| 20260905094523 | 80 | 11 | 2.0 | 5.0 | 0.00 | 0.00 | 0.00 | 67 | 1017.8 |
| 20260905094517 | 80 | 350 | 2.0 | 5.0 | 0.00 | 0.00 | 0.00 | 67 | 1017.8 |
| 20260905094456 | 80 | 13 | 2.0 | 5.0 | 0.00 | 0.00 | 0.00 | 67 | 1017.9 |
| 20260905094415 | 80 | 19 | 2.0 | 5.0 | 0.00 | 0.00 | 0.00 | 67 | 1017.9 |
| 20260905094018 | 80 | 346 | 2.0 | 5.0 | 0.00 | 0.00 | 0.00 | 67 | 1017.8 |
| 20260905093919 | 80 | 349 | 2.0 | 5.0 | 0.00 | 0.00 | 0.00 | 66 | 1017.8 |
| 20260905093832 | 80 | 328 | 2.0 | 5.0 | 0.00 | 0.00 | 0.00 | 66 | 1017.7 |
| 20260905093718 | 80 | 327 | 2.0 | 5.0 | 0.00 | 0.00 | 0.00 | 66 | 1017.7 |
| 20260905093620 | 80 | 331 | 2.0 | 5.0 | 0.00 | 0.00 | 0.00 | 66 | 1017.7 |
| 20260905093524 | 80 | 336 | 2.0 | 5.0 | 0.00 | 0.00 | 0.00 | 66 | 1017.6 |
| 20260905093420 | 80 | 345 | 2.0 | 4.0 | 0.00 | 0.00 | 0.00 | 66 | 1017.7 |
| 20260905093319 | 80 | 323 | 2.0 | 4.0 | 0.00 | 0.00 | 0.00 | 66 | 1017.6 |
| 20260905093218 | 80 | 311 | 2.0 | 4.0 | 0.00 | 0.00 | 0.00 | 66 | 1017.6 |
| 20260905093120 | 80 | 311 | 2.0 | 4.0 | 0.00 | 0.00 | 0.00 | 66 | 1017.6 |
| 20260905093020 | 80 | 328 | 2.0 | 5.0 | 0.00 | 0.00 | 0.00 | 66 | 1017.7 |
| 20260905092916 | 80 | 328 | 2.0 | 5.0 | 0.00 | 0.00 | 0.00 | 66 | 1017.6 |
| 20260905092812 | 80 | 328 | 2.0 | 5.0 | 0.00 | 0.00 | 0.00 | 66 | 1017.7 |
| 20260905092742 | 80 | 331 | 3.0 | 5.0 | 0.00 | 0.00 | 0.00 | 67 | 1017.7 |
| 20260905092735 | 80 | 302 | 2.0 | 4.0 | 0.00 | 0.00 | 0.00 | 67 | 1017.9 |
| 20260905092730 | 80 | 303 | 2.0 | 4.0 | 0.00 | 0.00 | 0.00 | 67 | 1017.8 |
| 20260905092715 | 80 | 325 | 2.0 | 5.0 | 0.00 | 0.00 | 0.00 | 66 | 1017.7 |
| 20260905092706 | 80 | 325 | 2.0 | 5.0 | 0.00 | 0.00 | 0.00 | 66 | 1017.7 |
| 20260905092643 | 80 | 325 | 2.0 | 5.0 | 0.00 | 0.00 | 0.00 | 66 | 1017.7 |
| 20260905092620 | 80 | 323 | 2.0 | 5.0 | 0.00 | 0.00 | 0.00 | 67 | 1017.8 |
| 20260905092605 | 80 | 323 | 2.0 | 5.0 | 0.00 | 0.00 | 0.00 | 66 | 1017.8 |
| 20260905092258 | 80 | 313 | 2.0 | 5.0 | 0.00 | 0.00 | 0.00 | 67 | 1017.7 |
| 20260905092252 | 80 | 321 | 2.0 | 4.0 | 0.00 | 0.00 | 0.00 | 67 | 1017.9 |
| 20260905092230 | 80 | 329 | 2.0 | 5.0 | 0.00 | 0.00 | 0.00 | 67 | 1017.8 |
| 20260905092202 | 80 | 331 | 3.0 | 5.0 | 0.00 | 0.00 | 0.00 | 67 | 1017.7 |
| 20260905091959 | 80 | 304 | 2.0 | 5.0 | 0.00 | 0.00 | 0.00 | 67 | 1017.7 |
| 20260905091832 | 80 | 300 | 2.0 | 4.0 | 0.00 | 0.00 | 0.00 | 67 | 1017.8 |
| 20260905091818 | 80 | 303 | 2.0 | 5.0 | 0.00 | 0.00 | 0.00 | 67 | 1017.8 |
| 20260905091744 | 80 | 350 | 2.0 | 5.0 | 0.00 | 0.00 | 0.00 | 67 | 1017.8 |
| 20260905091648 | 80 | 319 | 2.0 | 5.0 | 0.00 | 0.00 | 0.00 | 67 | 1017.8 |
| 20260905091507 | 80 | 320 | 2.0 | 5.0 | 0.00 | 0.00 | 0.00 | 67 | 1017.7 |
| 20260905091441 | 80 | 317 | 2.0 | 5.0 | 0.00 | 0.00 | 0.00 | 67 | 1017.8 |
| 20260905091412 | 80 | 317 | 2.0 | 5.0 | 0.00 | 0.00 | 0.00 | 67 | 1017.8 |
| 20260905091342 | 80 | 297 | 2.0 | 5.0 | 0.00 | 0.00 | 0.00 | 67 | 1017.7 |
| 20260905090707 | 80 | 301 | 2.0 | 4.0 | 0.00 | 0.00 | 0.00 | 67 | 1017.8 |
| 20260905090550 | 80 | 299 | 2.0 | 4.0 | 0.00 | 0.00 | 0.00 | 67 | 1017.8 |
| 20260905090537 | 80 | 5 | 2.0 | 4.0 | 0.00 | 0.00 | 0.00 | 68 | 1017.8 |
| 20260905090525 | 80 | 355 | 2.0 | 4.0 | 0.00 | 0.00 | 0.00 | 68 | 1017.9 |
| 20260905090249 | 80 | 9 | 2.0 | 4.0 | 0.00 | 0.00 | 0.00 | 68 | 1017.8 |
| 20260905090221 | 80 | 350 | 2.0 | 4.0 | 0.00 | 0.00 | 0.00 | 68 | 1017.9 |
| 20260905090210 | 80 | 344 | 2.0 | 4.0 | 0.00 | 0.00 | 0.00 | 68 | 1017.9 |
| 20260905085949 | 80 | 350 | 2.0 | 4.0 | 0.00 | 0.00 | 0.00 | 68 | 1017.9 |
| 20260905085848 | 80 | 355 | 2.0 | 4.0 | 0.00 | 0.00 | 0.00 | 68 | 1018.0 |
| 20260905085809 | 80 | 346 | 2.0 | 4.0 | 0.00 | 0.00 | 0.00 | 68 | 1017.9 |
| 20260905085803 | 80 | 355 | 2.0 | 4.0 | 0.00 | 0.00 | 0.00 | 68 | 1017.9 |
| 20260905085752 | 80 | 355 | 2.0 | 4.0 | 0.00 | 0.00 | 0.00 | 68 | 1017.9 |
| 20260905085731 | 80 | 355 | 2.0 | 4.0 | 0.00 | 0.00 | 0.00 | 68 | 1018.0 |
| 20260905085612 | 80 | 355 | 2.0 | 4.0 | 0.00 | 0.00 | 0.00 | 68 | 1017.9 |
| 20260905085340 | 81 | 346 | 2.0 | 4.0 | 0.00 | 0.00 | 0.00 | 67 | 1017.9 |
| 20260905085314 | 81 | 336 | 2.0 | 3.0 | 0.00 | 0.00 | 0.00 | 67 | 1017.9 |
| 20260905085305 | 81 | 348 | 2.0 | 3.0 | 0.00 | 0.00 | 0.00 | 67 | 1017.9 |
| 20260905085109 | 81 | 311 | 2.0 | 3.0 | 0.00 | 0.00 | 0.00 | 67 | 1017.9 |
| 20260905085059 | 81 | 334 | 2.0 | 3.0 | 0.00 | 0.00 | 0.00 | 67 | 1017.8 |
| 20260905084838 | 81 | 311 | 2.0 | 3.0 | 0.00 | 0.00 | 0.00 | 67 | 1017.9 |
| 20260905084743 | 81 | 311 | 2.0 | 4.0 | 0.00 | 0.00 | 0.00 | 67 | 1017.9 |
| 20260905084637 | 81 | 311 | 2.0 | 4.0 | 0.00 | 0.00 | 0.00 | 67 | 1018.0 |
| 20260905084535 | 81 | 309 | 2.0 | 4.0 | 0.00 | 0.00 | 0.00 | 67 | 1017.9 |
| 20260905084431 | 81 | 309 | 2.0 | 4.0 | 0.00 | 0.00 | 0.00 | 67 | 1017.9 |
| 20260905084328 | 81 | 309 | 2.0 | 4.0 | 0.00 | 0.00 | 0.00 | 67 | 1017.9 |
| 20260905084229 | 81 | 309 | 2.0 | 4.0 | 0.00 | 0.00 | 0.00 | 67 | 1017.9 |
| 20260905084133 | 81 | 309 | 2.0 | 4.0 | 0.00 | 0.00 | 0.00 | 67 | 1017.9 |
| 20260905084028 | 81 | 309 | 3.0 | 4.0 | 0.00 | 0.00 | 0.00 | 67 | 1017.9 |
| 20260905083917 | 81 | 309 | 2.0 | 4.0 | 0.00 | 0.00 | 0.00 | 66 | 1017.9 |
| 20260905083851 | 81 | 304 | 3.0 | 5.0 | 0.00 | 0.00 | 0.00 | 66 | 1017.9 |
| 20260905083838 | 81 | 306 | 2.0 | 4.0 | 0.00 | 0.00 | 0.00 | 66 | 1018.0 |
| 20260905083700 | 81 | 319 | 3.0 | 5.0 | 0.00 | 0.00 | 0.00 | 66 | 1017.9 |
| 20260905083647 | 81 | 303 | 3.0 | 5.0 | 0.00 | 0.00 | 0.00 | 66 | 1017.9 |
| 20260905083416 | 81 | 321 | 3.0 | 5.0 | 0.00 | 0.00 | 0.00 | 66 | 1017.9 |
| 20260905083316 | 81 | 321 | 3.0 | 5.0 | 0.00 | 0.00 | 0.00 | 66 | 1017.9 |
| 20260905083246 | 81 | 325 | 3.0 | 5.0 | 0.00 | 0.00 | 0.00 | 66 | 1017.9 |
| 20260905083236 | 81 | 304 | 3.0 | 5.0 | 0.00 | 0.00 | 0.00 | 66 | 1017.8 |
| 20260905083013 | 81 | 320 | 3.0 | 5.0 | 0.00 | 0.00 | 0.00 | 66 | 1017.9 |
| 20260905082914 | 81 | 321 | 3.0 | 5.0 | 0.00 | 0.00 | 0.00 | 66 | 1018.0 |
| 20260905082810 | 81 | 315 | 3.0 | 5.0 | 0.00 | 0.00 | 0.00 | 65 | 1017.9 |
| 20260905082710 | 81 | 310 | 3.0 | 5.0 | 0.00 | 0.00 | 0.00 | 65 | 1017.9 |
| 20260905082640 | 81 | 342 | 3.0 | 5.0 | 0.00 | 0.00 | 0.00 | 65 | 1017.9 |
| 20260905082629 | 81 | 341 | 3.0 | 5.0 | 0.00 | 0.00 | 0.00 | 65 | 1018.0 |
| 20260905082410 | 81 | 317 | 3.0 | 4.0 | 0.00 | 0.00 | 0.00 | 65 | 1018.0 |
| 20260905082356 | 81 | 344 | 3.0 | 5.0 | 0.00 | 0.00 | 0.00 | 65 | 1017.9 |
| 20260905082337 | 81 | 317 | 3.0 | 4.0 | 0.00 | 0.00 | 0.00 | 65 | 1018.0 |
| 20260905082320 | 81 | 338 | 3.0 | 5.0 | 0.00 | 0.00 | 0.00 | 65 | 1018.0 |
| 20260905082129 | 82 | 316 | 2.0 | 4.0 | 0.00 | 0.00 | 0.00 | 64 | 1018.0 |
| 20260905082118 | 81 | 317 | 3.0 | 4.0 | 0.00 | 0.00 | 0.00 | 64 | 1018.0 |
| 20260905081926 | 81 | 313 | 2.0 | 4.0 | 0.00 | 0.00 | 0.00 | 64 | 1018.0 |
| 20260905081914 | 81 | 323 | 2.0 | 4.0 | 0.00 | 0.00 | 0.00 | 64 | 1017.9 |
| 20260905081649 | 81 | 320 | 2.0 | 4.0 | 0.00 | 0.00 | 0.00 | 64 | 1018.0 |
| 20260905081548 | 81 | 324 | 2.0 | 4.0 | 0.00 | 0.00 | 0.00 | 64 | 1018.0 |
| 20260905081446 | 81 | 317 | 2.0 | 4.0 | 0.00 | 0.00 | 0.00 | 63 | 1018.0 |
| 20260905081341 | 81 | 317 | 2.0 | 4.0 | 0.00 | 0.00 | 0.00 | 63 | 1018.0 |
| 20260905081313 | 81 | 316 | 2.0 | 4.0 | 0.00 | 0.00 | 0.00 | 63 | 1018.1 |
| 20260905081302 | 81 | 317 | 2.0 | 4.0 | 0.00 | 0.00 | 0.00 | 63 | 1018.1 |
| 20260905081042 | 81 | 316 | 2.0 | 4.0 | 0.00 | 0.00 | 0.00 | 63 | 1018.1 |
| 20260905080941 | 81 | 316 | 2.0 | 4.0 | 0.00 | 0.00 | 0.00 | 63 | 1018.1 |
| 20260905080841 | 81 | 316 | 2.0 | 4.0 | 0.00 | 0.00 | 0.00 | 64 | 1018.0 |
| 20260905080735 | 81 | 316 | 2.0 | 4.0 | 0.00 | 0.00 | 0.00 | 64 | 1018.1 |
| 20260905080634 | 81 | 317 | 2.0 | 4.0 | 0.00 | 0.00 | 0.00 | 64 | 1018.1 |
| 20260905080604 | 81 | 317 | 2.0 | 4.0 | 0.00 | 0.00 | 0.00 | 64 | 1018.1 |
| 20260905080553 | 81 | 317 | 2.0 | 4.0 | 0.00 | 0.00 | 0.00 | 64 | 1018.1 |
| 20260905080323 | 81 | 317 | 2.0 | 4.0 | 0.00 | 0.00 | 0.00 | 64 | 1018.1 |
| 20260905080310 | 81 | 317 | 2.0 | 4.0 | 0.00 | 0.00 | 0.00 | 65 | 1018.1 |
| 20260905080254 | 81 | 317 | 2.0 | 4.0 | 0.00 | 0.00 | 0.00 | 65 | 1018.1 |
| 20260905080128 | 81 | 317 | 2.0 | 4.0 | 0.00 | 0.00 | 0.00 | 65 | 1018.1 |
| 20260905080120 | 81 | 317 | 2.0 | 4.0 | 0.00 | 0.00 | 0.00 | 65 | 1018.1 |
| 20260905075720 | 81 | 315 | 2.0 | 4.0 | 0.00 | 0.00 | 0.00 | 65 | 1018.1 |
| 20260905075651 | 81 | 309 | 2.0 | 4.0 | 0.00 | 0.00 | 0.00 | 66 | 1018.2 |
| 20260905075640 | 81 | 315 | 2.0 | 4.0 | 0.00 | 0.00 | 0.00 | 66 | 1018.2 |
| 20260905075429 | 82 | 306 | 2.0 | 3.0 | 0.00 | 0.00 | 0.00 | 66 | 1018.2 |
| 20260905075419 | 81 | 309 | 2.0 | 3.0 | 0.00 | 0.00 | 0.00 | 66 | 1018.2 |
| 20260905075412 | 81 | 306 | 2.0 | 3.0 | 0.00 | 0.00 | 0.00 | 66 | 1018.2 |
| 20260905075350 | 81 | 308 | 2.0 | 3.0 | 0.00 | 0.00 | 0.00 | 66 | 1018.1 |
| 20260905075026 | 81 | 306 | 2.0 | 3.0 | 0.00 | 0.00 | 0.00 | 66 | 1018.2 |
| 20260905075013 | 82 | 306 | 2.0 | 3.0 | 0.00 | 0.00 | 0.00 | 66 | 1018.2 |
| 20260905074952 | 82 | 306 | 2.0 | 3.0 | 0.00 | 0.00 | 0.00 | 66 | 1018.2 |
| 20260905074825 | 81 | 306 | 2.0 | 3.0 | 0.00 | 0.00 | 0.00 | 66 | 1018.2 |
| 20260905074604 | 81 | 307 | 2.0 | 3.0 | 0.00 | 0.00 | 0.00 | 66 | 1018.2 |
| 20260905074500 | 81 | 307 | 2.0 | 3.0 | 0.00 | 0.00 | 0.00 | 66 | 1018.2 |
| 20260905074359 | 81 | 308 | 2.0 | 3.0 | 0.00 | 0.00 | 0.00 | 66 | 1018.2 |
| 20260905074300 | 81 | 308 | 2.0 | 3.0 | 0.00 | 0.00 | 0.00 | 67 | 1018.2 |
| 20260905074157 | 81 | 313 | 2.0 | 3.0 | 0.00 | 0.00 | 0.00 | 66 | 1018.4 |
| 20260905074055 | 81 | 313 | 2.0 | 3.0 | 0.00 | 0.00 | 0.00 | 67 | 1018.4 |
| 20260905073955 | 81 | 313 | 2.0 | 3.0 | 0.00 | 0.00 | 0.00 | 67 | 1018.2 |
| 20260905073853 | 81 | 313 | 2.0 | 3.0 | 0.00 | 0.00 | 0.00 | 67 | 1018.2 |
| 20260905073752 | 81 | 313 | 2.0 | 3.0 | 0.00 | 0.00 | 0.00 | 67 | 1018.2 |
| 20260905073650 | 81 | 313 | 2.0 | 3.0 | 0.00 | 0.00 | 0.00 | 67 | 1018.2 |
| 20260905073551 | 81 | 313 | 2.0 | 3.0 | 0.00 | 0.00 | 0.00 | 67 | 1018.2 |
| 20260905073521 | 81 | 313 | 2.0 | 3.0 | 0.00 | 0.00 | 0.00 | 67 | 1018.2 |
| 20260905073511 | 81 | 313 | 2.0 | 3.0 | 0.00 | 0.00 | 0.00 | 67 | 1018.2 |
| 20260905073319 | 81 | 313 | 2.0 | 3.0 | 0.00 | 0.00 | 0.00 | 67 | 1018.4 |
| 20260905073309 | 81 | 313 | 2.0 | 3.0 | 0.00 | 0.00 | 0.00 | 67 | 1018.2 |
| 20260905073045 | 81 | 313 | 2.0 | 3.0 | 0.00 | 0.00 | 0.00 | 67 | 1018.2 |
| 20260905072943 | 81 | 313 | 2.0 | 3.0 | 0.00 | 0.00 | 0.00 | 67 | 1018.2 |
| 20260905072843 | 81 | 313 | 2.0 | 4.0 | 0.00 | 0.00 | 0.00 | 67 | 1018.2 |
| 20260905072742 | 81 | 313 | 2.0 | 4.0 | 0.00 | 0.00 | 0.00 | 67 | 1018.2 |
| 20260905072641 | 81 | 313 | 2.0 | 4.0 | 0.00 | 0.00 | 0.00 | 67 | 1018.2 |
| 20260905072543 | 81 | 313 | 2.0 | 4.0 | 0.00 | 0.00 | 0.00 | 67 | 1018.2 |
| 20260905072439 | 81 | 313 | 2.0 | 4.0 | 0.00 | 0.00 | 0.00 | 67 | 1018.2 |
| 20260905072419 | 81 | 313 | 2.0 | 4.0 | 0.00 | 0.00 | 0.00 | 67 | 1018.2 |
| 20260905072407 | 81 | 313 | 2.0 | 4.0 | 0.00 | 0.00 | 0.00 | 67 | 1018.2 |
| 20260905072142 | 81 | 313 | 2.0 | 4.0 | 0.00 | 0.00 | 0.00 | 67 | 1018.2 |
| 20260905072039 | 81 | 313 | 2.0 | 4.0 | 0.00 | 0.00 | 0.00 | 67 | 1018.2 |
| 20260905071941 | 81 | 313 | 2.0 | 4.0 | 0.00 | 0.00 | 0.00 | 67 | 1018.4 |
| 20260905071842 | 81 | 314 | 2.0 | 4.0 | 0.00 | 0.00 | 0.00 | 67 | 1018.4 |
| 20260905071741 | 81 | 314 | 2.0 | 4.0 | 0.00 | 0.00 | 0.00 | 68 | 1018.2 |
| 20260905071641 | 81 | 314 | 2.0 | 4.0 | 0.00 | 0.00 | 0.00 | 67 | 1018.2 |
| 20260905071541 | 81 | 314 | 2.0 | 4.0 | 0.00 | 0.00 | 0.00 | 67 | 1018.2 |
| 20260905071440 | 81 | 314 | 2.0 | 4.0 | 0.00 | 0.00 | 0.00 | 68 | 1018.2 |
| 20260905071341 | 81 | 314 | 2.0 | 4.0 | 0.00 | 0.00 | 0.00 | 68 | 1018.2 |
| 20260905071240 | 81 | 315 | 2.0 | 4.0 | 0.00 | 0.00 | 0.00 | 68 | 1018.2 |
| 20260905071137 | 81 | 311 | 2.0 | 4.0 | 0.00 | 0.00 | 0.00 | 68 | 1018.2 |
| 20260905071037 | 81 | 313 | 2.0 | 3.0 | 0.00 | 0.00 | 0.00 | 68 | 1018.4 |
| 20260905071006 | 81 | 313 | 2.0 | 3.0 | 0.00 | 0.00 | 0.00 | 68 | 1018.2 |
| 20260905070956 | 81 | 313 | 2.0 | 3.0 | 0.00 | 0.00 | 0.00 | 68 | 1018.2 |
| 20260905070732 | 81 | 313 | 2.0 | 3.0 | 0.00 | 0.00 | 0.00 | 68 | 1018.4 |
| 20260905070633 | 81 | 313 | 2.0 | 3.0 | 0.00 | 0.00 | 0.00 | 68 | 1018.4 |
| 20260905070530 | 81 | 313 | 2.0 | 3.0 | 0.00 | 0.00 | 0.00 | 68 | 1018.4 |
| 20260905070428 | 81 | 313 | 2.0 | 3.0 | 0.00 | 0.00 | 0.00 | 68 | 1018.5 |
| 20260905070328 | 81 | 313 | 2.0 | 3.0 | 0.00 | 0.00 | 0.00 | 68 | 1018.5 |
| 20260905070225 | 81 | 313 | 2.0 | 3.0 | 0.00 | 0.00 | 0.00 | 68 | 1018.5 |
| 20260905070125 | 81 | 313 | 2.0 | 3.0 | 0.00 | 0.00 | 0.00 | 68 | 1018.5 |
| 20260905070026 | 81 | 313 | 2.0 | 3.0 | 0.00 | 0.00 | 0.00 | 68 | 1018.5 |
| 20260905065956 | 81 | 313 | 2.0 | 3.0 | 0.00 | 0.00 | 0.00 | 68 | 1018.5 |
| 20260905065945 | 81 | 313 | 2.0 | 3.0 | 0.00 | 0.00 | 0.00 | 68 | 1018.5 |
| 20260905065723 | 81 | 313 | 2.0 | 3.0 | 0.00 | 0.00 | 0.00 | 68 | 1018.5 |
| 20260905065621 | 81 | 313 | 2.0 | 3.0 | 0.00 | 0.00 | 0.00 | 68 | 1018.6 |
| 20260905065521 | 81 | 313 | 2.0 | 3.0 | 0.00 | 0.00 | 0.00 | 68 | 1018.5 |
| 20260905065423 | 81 | 313 | 2.0 | 3.0 | 0.00 | 0.00 | 0.00 | 68 | 1018.5 |
| 20260905065345 | 81 | 313 | 2.0 | 3.0 | 0.00 | 0.00 | 0.00 | 68 | 1018.6 |
| 20260905065333 | 81 | 313 | 2.0 | 3.0 | 0.00 | 0.00 | 0.00 | 68 | 1018.5 |
| 20260905065108 | 81 | 313 | 2.0 | 3.0 | 0.00 | 0.00 | 0.00 | 68 | 1018.6 |
| 20260905065009 | 81 | 313 | 2.0 | 3.0 | 0.00 | 0.00 | 0.00 | 68 | 1018.6 |
| 20260905064909 | 81 | 313 | 2.0 | 3.0 | 0.00 | 0.00 | 0.00 | 68 | 1018.6 |
| 20260905064847 | 81 | 313 | 2.0 | 3.0 | 0.00 | 0.00 | 0.00 | 68 | 1018.6 |
| 20260905064841 | 81 | 313 | 2.0 | 3.0 | 0.00 | 0.00 | 0.00 | 68 | 1018.5 |
| 20260905064831 | 81 | 313 | 2.0 | 3.0 | 0.00 | 0.00 | 0.00 | 68 | 1018.7 |
| 20260905064703 | 81 | 313 | 2.0 | 3.0 | 0.00 | 0.00 | 0.00 | 68 | 1018.6 |
| 20260905064639 | 81 | 313 | 2.0 | 3.0 | 0.00 | 0.00 | 0.00 | 68 | 1018.6 |
| 20260905064428 | 81 | 313 | 2.0 | 3.0 | 0.00 | 0.00 | 0.00 | 68 | 1018.6 |
| 20260905064259 | 81 | 313 | 2.0 | 4.0 | 0.00 | 0.00 | 0.00 | 68 | 1018.6 |
| 20260905064156 | 81 | 313 | 2.0 | 4.0 | 0.00 | 0.00 | 0.00 | 68 | 1018.6 |
| 20260905064055 | 81 | 313 | 2.0 | 4.0 | 0.00 | 0.00 | 0.00 | 68 | 1018.6 |
| 20260905063954 | 81 | 313 | 2.0 | 4.0 | 0.00 | 0.00 | 0.00 | 68 | 1018.6 |
| 20260905063856 | 81 | 313 | 2.0 | 4.0 | 0.00 | 0.00 | 0.00 | 68 | 1018.6 |
| 20260905063822 | 81 | 313 | 2.0 | 4.0 | 0.00 | 0.00 | 0.00 | 69 | 1018.5 |
| 20260905063809 | 81 | 313 | 2.0 | 4.0 | 0.00 | 0.00 | 0.00 | 68 | 1018.5 |
| 20260905063622 | 81 | 313 | 2.0 | 4.0 | 0.00 | 0.00 | 0.00 | 69 | 1018.6 |
| 20260905063609 | 81 | 313 | 2.0 | 4.0 | 0.00 | 0.00 | 0.00 | 69 | 1018.5 |
| 20260905063419 | 81 | 313 | 2.0 | 4.0 | 0.00 | 0.00 | 0.00 | 69 | 1018.6 |
| 20260905063407 | 81 | 313 | 2.0 | 4.0 | 0.00 | 0.00 | 0.00 | 69 | 1018.6 |
| 20260905063145 | 81 | 313 | 2.0 | 4.0 | 0.00 | 0.00 | 0.00 | 69 | 1018.6 |
| 20260905063044 | 81 | 313 | 2.0 | 4.0 | 0.00 | 0.00 | 0.00 | 69 | 1018.7 |
| 20260905062945 | 81 | 313 | 2.0 | 4.0 | 0.00 | 0.00 | 0.00 | 69 | 1018.7 |
| 20260905062843 | 81 | 313 | 2.0 | 4.0 | 0.00 | 0.00 | 0.00 | 69 | 1018.7 |
| 20260905062742 | 81 | 313 | 2.0 | 4.0 | 0.00 | 0.00 | 0.00 | 69 | 1018.7 |
| 20260905062640 | 81 | 306 | 2.0 | 4.0 | 0.00 | 0.00 | 0.00 | 70 | 1018.7 |
| 20260905062541 | 80 | 306 | 2.0 | 4.0 | 0.00 | 0.00 | 0.00 | 70 | 1018.7 |
| 20260905062439 | 80 | 306 | 2.0 | 4.0 | 0.00 | 0.00 | 0.00 | 70 | 1018.7 |
| 20260905062336 | 80 | 303 | 2.0 | 3.0 | 0.00 | 0.00 | 0.00 | 70 | 1018.7 |
| 20260905062237 | 80 | 300 | 1.0 | 3.0 | 0.00 | 0.00 | 0.00 | 70 | 1018.7 |
| 20260905062137 | 80 | 267 | 1.0 | 3.0 | 0.00 | 0.00 | 0.00 | 70 | 1018.7 |
| 20260905062029 | 80 | 264 | 1.0 | 3.0 | 0.00 | 0.00 | 0.00 | 70 | 1018.6 |
| 20260905061936 | 80 | 238 | 1.0 | 3.0 | 0.00 | 0.00 | 0.00 | 71 | 1018.6 |
| 20260905061830 | 80 | 237 | 1.0 | 3.0 | 0.00 | 0.00 | 0.00 | 71 | 1018.5 |
| 20260905061731 | 80 | 204 | 1.0 | 3.0 | 0.00 | 0.00 | 0.00 | 71 | 1018.5 |
| 20260905061631 | 80 | 204 | 0.0 | 3.0 | 0.00 | 0.00 | 0.00 | 71 | 1018.6 |
| 20260905061536 | 80 | 201 | 0.0 | 3.0 | 0.00 | 0.00 | 0.00 | 71 | 1018.5 |
| 20260905061440 | 80 | 201 | 0.0 | 3.0 | 0.00 | 0.00 | 0.00 | 71 | 1018.5 |
| 20260905061328 | 80 | 201 | 0.0 | 3.0 | 0.00 | 0.00 | 0.00 | 71 | 1018.6 |
| 20260905061233 | 80 | 201 | 0.0 | 3.0 | 0.00 | 0.00 | 0.00 | 71 | 1018.5 |
| 20260905061157 | 80 | 220 | 0.0 | 2.0 | 0.00 | 0.00 | 0.00 | 71 | 1018.5 |
| 20260905061148 | 80 | 201 | 0.0 | 3.0 | 0.00 | 0.00 | 0.00 | 71 | 1018.6 |
| 20260905060920 | 80 | 219 | 0.0 | 2.0 | 0.00 | 0.00 | 0.00 | 71 | 1018.5 |
| 20260905060820 | 80 | 219 | 0.0 | 2.0 | 0.00 | 0.00 | 0.00 | 71 | 1018.6 |
| 20260905060720 | 80 | 219 | 0.0 | 2.0 | 0.00 | 0.00 | 0.00 | 71 | 1018.6 |
| 20260905060619 | 80 | 219 | 0.0 | 2.0 | 0.00 | 0.00 | 0.00 | 71 | 1018.6 |
| 20260905060609 | 79 | 219 | 1.0 | 2.0 | 0.00 | 0.00 | 0.00 | 71 | 1018.6 |
| 20260905060605 | 79 | 219 | 1.0 | 3.0 | 0.00 | 0.00 | 0.00 | 71 | 1018.7 |
| 20260905060554 | 80 | 219 | 1.0 | 2.0 | 0.00 | 0.00 | 0.00 | 71 | 1018.7 |
| 20260905060355 | 79 | 219 | 1.0 | 2.0 | 0.00 | 0.00 | 0.00 | 71 | 1018.7 |
| 20260905060120 | 79 | 219 | 1.0 | 3.0 | 0.00 | 0.00 | 0.00 | 71 | 1018.7 |
| 20260905060016 | 79 | 218 | 1.0 | 3.0 | 0.00 | 0.00 | 0.00 | 71 | 1018.6 |
| 20260905055918 | 79 | 218 | 1.0 | 3.0 | 0.00 | 0.00 | 0.00 | 71 | 1018.6 |
| 20260905055910 | 79 | 218 | 1.0 | 3.0 | 0.00 | 0.00 | 0.00 | 71 | 1018.6 |
| 20260905055857 | 79 | 218 | 1.0 | 3.0 | 0.00 | 0.00 | 0.00 | 71 | 1018.6 |
| 20260905055613 | 79 | 218 | 1.0 | 3.0 | 0.00 | 0.00 | 0.00 | 71 | 1018.6 |
| 20260905055527 | 79 | 218 | 1.0 | 3.0 | 0.00 | 0.00 | 0.00 | 71 | 1018.6 |
| 20260905055515 | 79 | 218 | 1.0 | 3.0 | 0.00 | 0.00 | 0.00 | 71 | 1018.6 |
| 20260905055502 | 79 | 218 | 1.0 | 3.0 | 0.00 | 0.00 | 0.00 | 71 | 1018.6 |
| 20260905055238 | 80 | 219 | 1.0 | 2.0 | 0.00 | 0.00 | 0.00 | 71 | 1018.7 |
| 20260905055110 | 79 | 219 | 1.0 | 2.0 | 0.00 | 0.00 | 0.00 | 71 | 1018.7 |
| 20260905055012 | 80 | 219 | 1.0 | 3.0 | 0.00 | 0.00 | 0.00 | 71 | 1018.7 |
| 20260905054911 | 80 | 219 | 1.0 | 3.0 | 0.00 | 0.00 | 0.00 | 71 | 1018.7 |
| 20260905054810 | 80 | 219 | 1.0 | 3.0 | 0.00 | 0.00 | 0.00 | 71 | 1018.7 |
| 20260905054717 | 80 | 219 | 1.0 | 3.0 | 0.00 | 0.00 | 0.00 | 71 | 1018.7 |
| 20260905054611 | 80 | 219 | 1.0 | 3.0 | 0.00 | 0.00 | 0.00 | 71 | 1018.7 |
| 20260905054509 | 80 | 219 | 1.0 | 3.0 | 0.00 | 0.00 | 0.00 | 71 | 1018.7 |
| 20260905054417 | 79 | 219 | 1.0 | 3.0 | 0.00 | 0.00 | 0.00 | 71 | 1018.8 |
| 20260905054309 | 80 | 219 | 1.0 | 3.0 | 0.00 | 0.00 | 0.00 | 71 | 1018.7 |
| 20260905054303 | 80 | 218 | 1.0 | 3.0 | 0.00 | 0.00 | 0.00 | 71 | 1018.7 |
| 20260905054257 | 80 | 216 | 1.0 | 3.0 | 0.00 | 0.00 | 0.00 | 71 | 1018.8 |
| 20260905054251 | 80 | 216 | 2.0 | 3.0 | 0.00 | 0.00 | 0.00 | 71 | 1018.7 |
| 20260905054234 | 80 | 219 | 1.0 | 3.0 | 0.00 | 0.00 | 0.00 | 71 | 1018.8 |
| 20260905054215 | 80 | 219 | 1.0 | 3.0 | 0.00 | 0.00 | 0.00 | 71 | 1018.7 |
| 20260905053705 | 80 | 216 | 2.0 | 3.0 | 0.00 | 0.00 | 0.00 | 71 | 1018.7 |
| 20260905053606 | 80 | 216 | 2.0 | 3.0 | 0.00 | 0.00 | 0.00 | 71 | 1018.7 |
| 20260905053506 | 80 | 216 | 2.0 | 3.0 | 0.00 | 0.00 | 0.00 | 71 | 1018.7 |
| 20260905053405 | 79 | 216 | 2.0 | 3.0 | 0.00 | 0.00 | 0.00 | 71 | 1018.7 |
| 20260905053307 | 79 | 216 | 2.0 | 3.0 | 0.00 | 0.00 | 0.00 | 71 | 1018.7 |
| 20260905053208 | 79 | 216 | 2.0 | 3.0 | 0.00 | 0.00 | 0.00 | 71 | 1018.6 |
| 20260905053130 | 79 | 216 | 1.0 | 2.0 | 0.00 | 0.00 | 0.00 | 71 | 1018.7 |
| 20260905053115 | 79 | 216 | 2.0 | 3.0 | 0.00 | 0.00 | 0.00 | 71 | 1018.6 |
| 20260905053055 | 79 | 216 | 1.0 | 3.0 | 0.00 | 0.00 | 0.00 | 71 | 1018.7 |
| 20260905052806 | 80 | 216 | 1.0 | 2.0 | 0.00 | 0.00 | 0.00 | 71 | 1018.7 |
| 20260905052706 | 80 | 216 | 1.0 | 2.0 | 0.00 | 0.00 | 0.00 | 70 | 1018.7 |
| 20260905052607 | 80 | 216 | 1.0 | 2.0 | 0.00 | 0.00 | 0.00 | 70 | 1018.8 |
| 20260905052507 | 80 | 216 | 1.0 | 2.0 | 0.00 | 0.00 | 0.00 | 70 | 1018.8 |
| 20260905052406 | 80 | 216 | 1.0 | 3.0 | 0.00 | 0.00 | 0.00 | 70 | 1018.8 |
| 20260905052320 | 80 | 216 | 1.0 | 3.0 | 0.00 | 0.00 | 0.00 | 70 | 1018.7 |
| 20260905052253 | 80 | 216 | 1.0 | 3.0 | 0.00 | 0.00 | 0.00 | 70 | 1018.8 |
| 20260905052123 | 80 | 216 | 1.0 | 3.0 | 0.00 | 0.00 | 0.00 | 70 | 1018.7 |
| 20260905052034 | 80 | 216 | 1.0 | 3.0 | 0.00 | 0.00 | 0.00 | 70 | 1018.8 |
| 20260905051908 | 80 | 216 | 1.0 | 3.0 | 0.00 | 0.00 | 0.00 | 70 | 1018.8 |
| 20260905051858 | 80 | 216 | 2.0 | 3.0 | 0.00 | 0.00 | 0.00 | 70 | 1018.8 |
| 20260905051839 | 80 | 216 | 1.0 | 3.0 | 0.00 | 0.00 | 0.00 | 70 | 1018.8 |
| 20260905051818 | 80 | 216 | 1.0 | 3.0 | 0.00 | 0.00 | 0.00 | 70 | 1018.8 |
| 20260905051405 | 80 | 217 | 2.0 | 3.0 | 0.00 | 0.00 | 0.00 | 70 | 1018.8 |
| 20260905051338 | 80 | 217 | 1.0 | 3.0 | 0.00 | 0.00 | 0.00 | 70 | 1018.7 |
| 20260905051328 | 80 | 217 | 1.0 | 3.0 | 0.00 | 0.00 | 0.00 | 70 | 1018.7 |
| 20260905051107 | 80 | 217 | 1.0 | 3.0 | 0.00 | 0.00 | 0.00 | 70 | 1018.8 |
| 20260905051006 | 80 | 217 | 1.0 | 3.0 | 0.00 | 0.00 | 0.00 | 70 | 1018.7 |
| 20260905050910 | 80 | 221 | 1.0 | 3.0 | 0.00 | 0.00 | 0.00 | 70 | 1018.7 |
| 20260905050806 | 80 | 221 | 1.0 | 2.0 | 0.00 | 0.00 | 0.00 | 70 | 1018.7 |
| 20260905050708 | 80 | 221 | 1.0 | 2.0 | 0.00 | 0.00 | 0.00 | 70 | 1018.7 |
| 20260905050632 | 80 | 221 | 1.0 | 2.0 | 0.00 | 0.00 | 0.00 | 70 | 1018.8 |
| 20260905050620 | 80 | 221 | 1.0 | 2.0 | 0.00 | 0.00 | 0.00 | 70 | 1018.8 |
| 20260905050358 | 80 | 221 | 1.0 | 2.0 | 0.00 | 0.00 | 0.00 | 70 | 1018.8 |
| 20260905050259 | 80 | 221 | 1.0 | 2.0 | 0.00 | 0.00 | 0.00 | 70 | 1018.8 |
| 20260905050202 | 80 | 221 | 1.0 | 2.0 | 0.00 | 0.00 | 0.00 | 69 | 1018.8 |
| 20260905050057 | 80 | 221 | 1.0 | 2.0 | 0.00 | 0.00 | 0.00 | 69 | 1018.9 |
| 20260905050030 | 80 | 221 | 2.0 | 3.0 | 0.00 | 0.00 | 0.00 | 69 | 1018.9 |
| 20260905050018 | 80 | 221 | 2.0 | 3.0 | 0.00 | 0.00 | 0.00 | 69 | 1018.9 |
| 20260905045755 | 80 | 221 | 2.0 | 3.0 | 0.00 | 0.00 | 0.00 | 69 | 1018.9 |
| 20260905045656 | 80 | 221 | 2.0 | 3.0 | 0.00 | 0.00 | 0.00 | 69 | 1018.8 |
| 20260905045555 | 80 | 221 | 2.0 | 3.0 | 0.00 | 0.00 | 0.00 | 69 | 1018.9 |
| 20260905045511 | 79 | 221 | 2.0 | 3.0 | 0.00 | 0.00 | 0.00 | 70 | 1018.9 |
| 20260905045429 | 79 | 221 | 2.0 | 3.0 | 0.00 | 0.00 | 0.00 | 70 | 1018.9 |
| 20260905045416 | 79 | 221 | 2.0 | 3.0 | 0.00 | 0.00 | 0.00 | 70 | 1018.9 |
| 20260905045152 | 79 | 221 | 2.0 | 3.0 | 0.00 | 0.00 | 0.00 | 70 | 1018.9 |
| 20260905045120 | 79 | 221 | 2.0 | 3.0 | 0.00 | 0.00 | 0.00 | 70 | 1018.8 |
| 20260905045116 | 79 | 221 | 2.0 | 3.0 | 0.00 | 0.00 | 0.00 | 70 | 1018.8 |
| 20260905045103 | 79 | 221 | 2.0 | 3.0 | 0.00 | 0.00 | 0.00 | 70 | 1018.9 |
| 20260905044754 | 79 | 221 | 2.0 | 3.0 | 0.00 | 0.00 | 0.00 | 70 | 1018.8 |
| 20260905044718 | 79 | 221 | 1.0 | 3.0 | 0.00 | 0.00 | 0.00 | 70 | 1018.8 |
| 20260905044549 | 79 | 221 | 1.0 | 3.0 | 0.00 | 0.00 | 0.00 | 70 | 1018.9 |
| 20260905044446 | 79 | 221 | 1.0 | 3.0 | 0.00 | 0.00 | 0.00 | 71 | 1018.9 |
| 20260905044358 | 79 | 221 | 1.0 | 2.0 | 0.00 | 0.00 | 0.00 | 71 | 1018.9 |
| 20260905044248 | 79 | 221 | 1.0 | 2.0 | 0.00 | 0.00 | 0.00 | 71 | 1018.8 |
| 20260905044146 | 79 | 221 | 1.0 | 2.0 | 0.00 | 0.00 | 0.00 | 71 | 1018.8 |
| 20260905044046 | 79 | 221 | 1.0 | 2.0 | 0.00 | 0.00 | 0.00 | 71 | 1018.9 |
| 20260905043947 | 79 | 221 | 1.0 | 2.0 | 0.00 | 0.00 | 0.00 | 71 | 1018.8 |
| 20260905043846 | 79 | 221 | 1.0 | 2.0 | 0.00 | 0.00 | 0.00 | 71 | 1018.8 |
| 20260905043746 | 79 | 221 | 1.0 | 2.0 | 0.00 | 0.00 | 0.00 | 71 | 1018.9 |
| 20260905043650 | 79 | 221 | 1.0 | 2.0 | 0.00 | 0.00 | 0.00 | 71 | 1018.9 |
| 20260905043545 | 79 | 221 | 1.0 | 2.0 | 0.00 | 0.00 | 0.00 | 71 | 1018.9 |
| 20260905043504 | 79 | 200 | 1.0 | 2.0 | 0.00 | 0.00 | 0.00 | 71 | 1018.9 |
| 20260905043449 | 79 | 221 | 1.0 | 2.0 | 0.00 | 0.00 | 0.00 | 71 | 1018.9 |
| 20260905043426 | 79 | 221 | 1.0 | 2.0 | 0.00 | 0.00 | 0.00 | 71 | 1018.8 |
| 20260905043302 | 79 | 200 | 1.0 | 2.0 | 0.00 | 0.00 | 0.00 | 71 | 1018.8 |
| 20260905043037 | 79 | 200 | 1.0 | 2.0 | 0.00 | 0.00 | 0.00 | 71 | 1018.9 |
| 20260905042935 | 79 | 200 | 1.0 | 2.0 | 0.00 | 0.00 | 0.00 | 71 | 1018.9 |
| 20260905042904 | 79 | 200 | 1.0 | 2.0 | 0.00 | 0.00 | 0.00 | 71 | 1018.9 |
| 20260905042853 | 79 | 200 | 1.0 | 2.0 | 0.00 | 0.00 | 0.00 | 71 | 1018.9 |
| 20260905042647 | 79 | 200 | 1.0 | 3.0 | 0.00 | 0.00 | 0.00 | 71 | 1019.0 |
| 20260905042635 | 79 | 200 | 1.0 | 3.0 | 0.00 | 0.00 | 0.00 | 71 | 1018.9 |
| 20260905042627 | 79 | 200 | 1.0 | 3.0 | 0.00 | 0.00 | 0.00 | 72 | 1018.9 |
| 20260905042604 | 79 | 200 | 1.0 | 3.0 | 0.00 | 0.00 | 0.00 | 71 | 1018.9 |
| 20260905042446 | 79 | 200 | 1.0 | 3.0 | 0.00 | 0.00 | 0.00 | 72 | 1018.9 |
| 20260905042430 | 79 | 200 | 1.0 | 3.0 | 0.00 | 0.00 | 0.00 | 71 | 1018.9 |
| 20260905042409 | 79 | 200 | 1.0 | 3.0 | 0.00 | 0.00 | 0.00 | 71 | 1018.9 |
| 20260905042319 | 79 | 200 | 1.0 | 3.0 | 0.00 | 0.00 | 0.00 | 71 | 1019.0 |
| 20260905042141 | 79 | 200 | 1.0 | 3.0 | 0.00 | 0.00 | 0.00 | 72 | 1019.0 |
| 20260905042127 | 79 | 200 | 1.0 | 3.0 | 0.00 | 0.00 | 0.00 | 71 | 1019.0 |
| 20260905042104 | 79 | 200 | 1.0 | 3.0 | 0.00 | 0.00 | 0.00 | 71 | 1018.9 |
| 20260905041949 | 79 | 200 | 1.0 | 3.0 | 0.00 | 0.00 | 0.00 | 72 | 1018.9 |
| 20260905041944 | 79 | 200 | 1.0 | 3.0 | 0.00 | 0.00 | 0.00 | 72 | 1018.9 |
| 20260905041938 | 79 | 200 | 2.0 | 3.0 | 0.00 | 0.00 | 0.00 | 72 | 1018.9 |
| 20260905041921 | 79 | 200 | 1.0 | 3.0 | 0.00 | 0.00 | 0.00 | 71 | 1019.0 |
| 20260905041905 | 79 | 200 | 1.0 | 3.0 | 0.00 | 0.00 | 0.00 | 72 | 1019.0 |
| 20260905041846 | 79 | 200 | 1.0 | 3.0 | 0.00 | 0.00 | 0.00 | 72 | 1018.9 |
| 20260905041145 | 79 | 200 | 2.0 | 3.0 | 0.00 | 0.00 | 0.00 | 72 | 1019.0 |
| 20260905041014 | 79 | 200 | 1.0 | 3.0 | 0.00 | 0.00 | 0.00 | 71 | 1019.0 |
| 20260905041010 | 79 | 200 | 1.0 | 2.0 | 0.00 | 0.00 | 0.00 | 71 | 1019.1 |
| 20260905041000 | 79 | 200 | 2.0 | 3.0 | 0.00 | 0.00 | 0.00 | 72 | 1018.9 |
| 20260905040946 | 79 | 200 | 1.0 | 2.0 | 0.00 | 0.00 | 0.00 | 71 | 1019.1 |
| 20260905040925 | 79 | 200 | 2.0 | 3.0 | 0.00 | 0.00 | 0.00 | 71 | 1019.0 |
| 20260905040847 | 79 | 200 | 1.0 | 3.0 | 0.00 | 0.00 | 0.00 | 71 | 1019.0 |
| 20260905040807 | 79 | 200 | 1.0 | 3.0 | 0.00 | 0.00 | 0.00 | 71 | 1019.0 |
| 20260905040715 | 79 | 200 | 1.0 | 3.0 | 0.00 | 0.00 | 0.00 | 71 | 1018.9 |
| 20260905040527 | 79 | 200 | 1.0 | 3.0 | 0.00 | 0.00 | 0.00 | 71 | 1019.1 |
| 20260905040508 | 79 | 200 | 1.0 | 3.0 | 0.00 | 0.00 | 0.00 | 71 | 1019.0 |
| 20260905040023 | 79 | 200 | 1.0 | 2.0 | 0.00 | 0.00 | 0.00 | 71 | 1019.0 |
| 20260905035753 | 79 | 200 | 1.0 | 2.0 | 0.00 | 0.00 | 0.00 | 71 | 1019.1 |
| 20260905035647 | 79 | 200 | 1.0 | 2.0 | 0.00 | 0.00 | 0.00 | 71 | 1019.1 |
| 20260905035543 | 79 | 200 | 1.0 | 2.0 | 0.00 | 0.00 | 0.00 | 71 | 1019.2 |
| 20260905035453 | 79 | 200 | 1.0 | 3.0 | 0.00 | 0.00 | 0.00 | 71 | 1019.1 |
| 20260905035340 | 79 | 199 | 1.0 | 3.0 | 0.00 | 0.00 | 0.00 | 71 | 1019.1 |
| 20260905035247 | 79 | 199 | 1.0 | 3.0 | 0.00 | 0.00 | 0.00 | 71 | 1019.1 |
| 20260905035140 | 79 | 199 | 1.0 | 3.0 | 0.00 | 0.00 | 0.00 | 71 | 1019.2 |
| 20260905035111 | 79 | 199 | 1.0 | 3.0 | 0.00 | 0.00 | 0.00 | 71 | 1019.2 |
| 20260905035057 | 79 | 199 | 1.0 | 3.0 | 0.00 | 0.00 | 0.00 | 71 | 1019.2 |
| 20260905035007 | 79 | 199 | 1.0 | 3.0 | 0.00 | 0.00 | 0.00 | 71 | 1019.2 |
| 20260905034828 | 79 | 199 | 1.0 | 3.0 | 0.00 | 0.00 | 0.00 | 71 | 1019.2 |
| 20260905034724 | 79 | 199 | 1.0 | 3.0 | 0.00 | 0.00 | 0.00 | 71 | 1019.2 |
| 20260905034636 | 79 | 199 | 1.0 | 4.0 | 0.00 | 0.00 | 0.00 | 71 | 1019.2 |
| 20260905034529 | 79 | 199 | 1.0 | 4.0 | 0.00 | 0.00 | 0.00 | 71 | 1019.2 |
| 20260905034512 | 79 | 199 | 1.0 | 4.0 | 0.00 | 0.00 | 0.00 | 71 | 1019.3 |
| 20260905034439 | 79 | 199 | 1.0 | 4.0 | 0.00 | 0.00 | 0.00 | 71 | 1019.2 |
| 20260905034341 | 79 | 199 | 1.0 | 4.0 | 0.00 | 0.00 | 0.00 | 71 | 1019.2 |
| 20260905034129 | 80 | 199 | 1.0 | 4.0 | 0.00 | 0.00 | 0.00 | 71 | 1019.3 |
| 20260905034018 | 80 | 199 | 1.0 | 4.0 | 0.00 | 0.00 | 0.00 | 71 | 1019.3 |
| 20260905033921 | 80 | 199 | 1.0 | 4.0 | 0.00 | 0.00 | 0.00 | 71 | 1019.3 |
| 20260905033813 | 80 | 199 | 1.0 | 4.0 | 0.00 | 0.00 | 0.00 | 71 | 1019.3 |
| 20260905033713 | 80 | 217 | 1.0 | 4.0 | 0.00 | 0.00 | 0.00 | 71 | 1019.3 |
| 20260905033612 | 80 | 227 | 1.0 | 3.0 | 0.00 | 0.00 | 0.00 | 71 | 1019.3 |
| 20260905033552 | 80 | 227 | 1.0 | 3.0 | 0.00 | 0.00 | 0.00 | 72 | 1019.4 |
| 20260905033538 | 80 | 227 | 1.0 | 3.0 | 0.00 | 0.00 | 0.00 | 71 | 1019.3 |
| 20260905033305 | 80 | 227 | 1.0 | 3.0 | 0.00 | 0.00 | 0.00 | 72 | 1019.4 |
| 20260905033203 | 80 | 227 | 1.0 | 3.0 | 0.00 | 0.00 | 0.00 | 72 | 1019.4 |
| 20260905033101 | 80 | 227 | 1.0 | 3.0 | 0.00 | 0.00 | 0.00 | 72 | 1019.4 |
| 20260905033000 | 80 | 227 | 1.0 | 3.0 | 0.00 | 0.00 | 0.00 | 72 | 1019.4 |
| 20260905032900 | 80 | 227 | 1.0 | 3.0 | 0.00 | 0.00 | 0.00 | 72 | 1019.4 |
| 20260905032755 | 80 | 227 | 1.0 | 3.0 | 0.00 | 0.00 | 0.00 | 71 | 1019.4 |
| 20260905032656 | 80 | 227 | 1.0 | 3.0 | 0.00 | 0.00 | 0.00 | 71 | 1019.3 |
| 20260905032555 | 80 | 227 | 1.0 | 2.0 | 0.00 | 0.00 | 0.00 | 71 | 1019.4 |
| 20260905032455 | 80 | 227 | 1.0 | 2.0 | 0.00 | 0.00 | 0.00 | 71 | 1019.4 |
| 20260905032426 | 80 | 227 | 1.0 | 2.0 | 0.00 | 0.00 | 0.00 | 71 | 1019.3 |
| 20260905032253 | 80 | 227 | 1.0 | 2.0 | 0.00 | 0.00 | 0.00 | 71 | 1019.4 |
| 20260905032150 | 80 | 227 | 1.0 | 2.0 | 0.00 | 0.00 | 0.00 | 71 | 1019.4 |
| 20260905032054 | 80 | 227 | 1.0 | 2.0 | 0.00 | 0.00 | 0.00 | 71 | 1019.4 |
| 20260905032022 | 80 | 227 | 1.0 | 3.0 | 0.00 | 0.00 | 0.00 | 71 | 1019.3 |
| 20260905032010 | 80 | 227 | 1.0 | 2.0 | 0.00 | 0.00 | 0.00 | 71 | 1019.3 |
| 20260905031813 | 81 | 227 | 1.0 | 3.0 | 0.00 | 0.00 | 0.00 | 71 | 1019.4 |
| 20260905031759 | 81 | 227 | 1.0 | 3.0 | 0.00 | 0.00 | 0.00 | 71 | 1019.4 |
| 20260905031534 | 81 | 227 | 1.0 | 3.0 | 0.00 | 0.00 | 0.00 | 71 | 1019.3 |
| 20260905031433 | 81 | 227 | 2.0 | 3.0 | 0.00 | 0.00 | 0.00 | 71 | 1019.4 |
| 20260905031333 | 81 | 227 | 2.0 | 3.0 | 0.00 | 0.00 | 0.00 | 71 | 1019.3 |
| 20260905031237 | 81 | 227 | 2.0 | 3.0 | 0.00 | 0.00 | 0.00 | 71 | 1019.3 |
| 20260905031130 | 81 | 227 | 2.0 | 3.0 | 0.00 | 0.00 | 0.00 | 70 | 1019.3 |
| 20260905031101 | 81 | 227 | 2.0 | 3.0 | 0.00 | 0.00 | 0.00 | 70 | 1019.4 |
| 20260905031054 | 81 | 227 | 2.0 | 3.0 | 0.00 | 0.00 | 0.00 | 70 | 1019.3 |
| 20260905030856 | 81 | 227 | 2.0 | 3.0 | 0.00 | 0.00 | 0.00 | 70 | 1019.4 |
| 20260905030847 | 81 | 227 | 2.0 | 3.0 | 0.00 | 0.00 | 0.00 | 70 | 1019.3 |
| 20260905030621 | 81 | 227 | 2.0 | 2.0 | 0.00 | 0.00 | 0.00 | 70 | 1019.4 |
| 20260905030532 | 81 | 227 | 2.0 | 2.0 | 0.00 | 0.00 | 0.00 | 70 | 1019.5 |
| 20260905030422 | 81 | 227 | 2.0 | 2.0 | 0.00 | 0.00 | 0.00 | 70 | 1019.5 |
| 20260905030322 | 80 | 227 | 2.0 | 2.0 | 0.00 | 0.00 | 0.00 | 70 | 1019.6 |
| 20260905030220 | 80 | 227 | 2.0 | 2.0 | 0.00 | 0.00 | 0.00 | 71 | 1019.5 |
| 20260905030127 | 80 | 227 | 2.0 | 2.0 | 0.00 | 0.00 | 0.00 | 70 | 1019.5 |
| 20260905030018 | 80 | 227 | 1.0 | 2.0 | 0.00 | 0.00 | 0.00 | 70 | 1019.5 |
| 20260905025916 | 80 | 227 | 1.0 | 2.0 | 0.00 | 0.00 | 0.00 | 70 | 1019.6 |
| 20260905025818 | 80 | 227 | 1.0 | 2.0 | 0.00 | 0.00 | 0.00 | 70 | 1019.6 |
| 20260905025745 | 80 | 227 | 1.0 | 2.0 | 0.00 | 0.00 | 0.00 | 71 | 1019.6 |
| 20260905025729 | 80 | 227 | 1.0 | 2.0 | 0.00 | 0.00 | 0.00 | 71 | 1019.6 |
| 20260905025710 | 80 | 227 | 1.0 | 2.0 | 0.00 | 0.00 | 0.00 | 71 | 1019.6 |
| 20260905025415 | 80 | 227 | 1.0 | 2.0 | 0.00 | 0.00 | 0.00 | 71 | 1019.7 |
| 20260905025314 | 80 | 227 | 1.0 | 2.0 | 0.00 | 0.00 | 0.00 | 71 | 1019.7 |
| 20260905025212 | 80 | 227 | 1.0 | 3.0 | 0.00 | 0.00 | 0.00 | 71 | 1019.7 |
| 20260905025125 | 80 | 227 | 2.0 | 3.0 | 0.00 | 0.00 | 0.00 | 71 | 1019.7 |
| 20260905025121 | 80 | 227 | 2.0 | 3.0 | 0.00 | 0.00 | 0.00 | 71 | 1019.7 |
| 20260905025111 | 80 | 227 | 1.0 | 3.0 | 0.00 | 0.00 | 0.00 | 71 | 1019.7 |
| 20260905025106 | 80 | 227 | 2.0 | 3.0 | 0.00 | 0.00 | 0.00 | 71 | 1019.7 |
| 20260905025043 | 80 | 227 | 2.0 | 3.0 | 0.00 | 0.00 | 0.00 | 71 | 1019.6 |
| 20260905025026 | 80 | 227 | 2.0 | 3.0 | 0.00 | 0.00 | 0.00 | 71 | 1019.7 |
| 20260905024505 | 80 | 227 | 2.0 | 3.0 | 0.00 | 0.00 | 0.00 | 71 | 1019.7 |
| 20260905024427 | 80 | 227 | 2.0 | 3.0 | 0.00 | 0.00 | 0.00 | 70 | 1019.8 |
| 20260905024419 | 80 | 227 | 2.0 | 3.0 | 0.00 | 0.00 | 0.00 | 70 | 1019.7 |
| 20260905024356 | 80 | 227 | 2.0 | 3.0 | 0.00 | 0.00 | 0.00 | 70 | 1019.7 |
| 20260905024230 | 80 | 227 | 2.0 | 3.0 | 0.00 | 0.00 | 0.00 | 70 | 1019.8 |
| 20260905023958 | 80 | 227 | 1.0 | 3.0 | 0.00 | 0.00 | 0.00 | 70 | 1019.8 |
| 20260905023914 | 80 | 227 | 1.0 | 3.0 | 0.00 | 0.00 | 0.00 | 70 | 1019.8 |
| 20260905023823 | 80 | 227 | 1.0 | 3.0 | 0.00 | 0.00 | 0.00 | 70 | 1019.8 |
| 20260905023703 | 80 | 227 | 1.0 | 3.0 | 0.00 | 0.00 | 0.00 | 70 | 1019.8 |
| 20260905023559 | 80 | 227 | 1.0 | 3.0 | 0.00 | 0.00 | 0.00 | 69 | 1019.8 |
| 20260905023527 | 80 | 227 | 2.0 | 3.0 | 0.00 | 0.00 | 0.00 | 69 | 1019.7 |
| 20260905023515 | 80 | 227 | 1.0 | 3.0 | 0.00 | 0.00 | 0.00 | 69 | 1019.7 |
| 20260905023254 | 80 | 227 | 1.0 | 3.0 | 0.00 | 0.00 | 0.00 | 69 | 1019.8 |
| 20260905023238 | 80 | 227 | 1.0 | 3.0 | 0.00 | 0.00 | 0.00 | 69 | 1019.8 |
| 20260905023221 | 80 | 227 | 1.0 | 3.0 | 0.00 | 0.00 | 0.00 | 69 | 1019.8 |
| 20260905022955 | 80 | 227 | 2.0 | 3.0 | 0.00 | 0.00 | 0.00 | 69 | 1019.8 |
| 20260905022848 | 80 | 227 | 1.0 | 3.0 | 0.00 | 0.00 | 0.00 | 69 | 1019.8 |
| 20260905022749 | 80 | 232 | 1.0 | 3.0 | 0.00 | 0.00 | 0.00 | 70 | 1019.8 |
| 20260905022649 | 80 | 232 | 2.0 | 5.0 | 0.00 | 0.00 | 0.00 | 70 | 1019.8 |
| 20260905022552 | 81 | 200 | 2.0 | 5.0 | 0.00 | 0.00 | 0.00 | 70 | 1019.8 |
| 20260905022459 | 81 | 196 | 2.0 | 5.0 | 0.00 | 0.00 | 0.00 | 69 | 1019.8 |
| 20260905022347 | 81 | 185 | 2.0 | 5.0 | 0.00 | 0.00 | 0.00 | 69 | 1019.8 |
| 20260905022248 | 81 | 200 | 2.0 | 5.0 | 0.00 | 0.00 | 0.00 | 69 | 1019.8 |
| 20260905022150 | 81 | 200 | 2.0 | 5.0 | 0.00 | 0.00 | 0.00 | 69 | 1019.7 |
| 20260905022049 | 81 | 205 | 2.0 | 5.0 | 0.00 | 0.00 | 0.00 | 69 | 1019.8 |
| 20260905021948 | 81 | 205 | 2.0 | 5.0 | 0.00 | 0.00 | 0.00 | 69 | 1019.7 |
| 20260905021845 | 81 | 199 | 2.0 | 5.0 | 0.00 | 0.00 | 0.00 | 69 | 1019.7 |
| 20260905021800 | 81 | 178 | 2.0 | 5.0 | 0.00 | 0.00 | 0.00 | 69 | 1019.7 |
| 20260905021642 | 81 | 167 | 2.0 | 4.0 | 0.00 | 0.00 | 0.00 | 69 | 1019.7 |
| 20260905021556 | 81 | 202 | 2.0 | 4.0 | 0.00 | 0.00 | 0.00 | 69 | 1019.7 |
| 20260905021441 | 81 | 208 | 2.0 | 4.0 | 0.00 | 0.00 | 0.00 | 69 | 1019.7 |
| 20260905021339 | 81 | 175 | 2.0 | 4.0 | 0.00 | 0.00 | 0.00 | 69 | 1019.7 |
| 20260905021249 | 81 | 225 | 2.0 | 4.0 | 0.00 | 0.00 | 0.00 | 69 | 1019.7 |
| 20260905021135 | 81 | 229 | 1.0 | 4.0 | 0.00 | 0.00 | 0.00 | 69 | 1019.7 |
| 20260905021107 | 81 | 239 | 1.0 | 4.0 | 0.00 | 0.00 | 0.00 | 69 | 1019.7 |
| 20260905021058 | 81 | 240 | 1.0 | 4.0 | 0.00 | 0.00 | 0.00 | 69 | 1019.7 |
| 20260905020904 | 81 | 202 | 1.0 | 4.0 | 0.00 | 0.00 | 0.00 | 69 | 1019.7 |
| 20260905020756 | 81 | 219 | 1.0 | 3.0 | 0.00 | 0.00 | 0.00 | 69 | 1019.7 |
| 20260905020748 | 81 | 203 | 1.0 | 4.0 | 0.00 | 0.00 | 0.00 | 69 | 1019.7 |
| 20260905020530 | 81 | 219 | 1.0 | 3.0 | 0.00 | 0.00 | 0.00 | 69 | 1019.7 |
| 20260905020429 | 81 | 161 | 1.0 | 3.0 | 0.00 | 0.00 | 0.00 | 69 | 1019.7 |
| 20260905020326 | 81 | 188 | 1.0 | 6.0 | 0.00 | 0.00 | 0.00 | 69 | 1019.6 |
| 20260905020220 | 81 | 184 | 1.0 | 6.0 | 0.00 | 0.00 | 0.00 | 69 | 1019.7 |
| 20260905020205 | 81 | 199 | 1.0 | 6.0 | 0.00 | 0.00 | 0.00 | 69 | 1019.6 |
| 20260905020151 | 81 | 191 | 1.0 | 6.0 | 0.00 | 0.00 | 0.00 | 69 | 1019.7 |
| 20260905015953 | 81 | 222 | 1.0 | 6.0 | 0.00 | 0.00 | 0.00 | 69 | 1019.6 |
| 20260905015939 | 81 | 194 | 1.0 | 6.0 | 0.00 | 0.00 | 0.00 | 69 | 1019.6 |
| 20260905015721 | 81 | 222 | 1.0 | 6.0 | 0.00 | 0.00 | 0.00 | 69 | 1019.7 |
| 20260905015618 | 81 | 222 | 1.0 | 6.0 | 0.00 | 0.00 | 0.00 | 69 | 1019.7 |
| 20260905015517 | 81 | 206 | 1.0 | 6.0 | 0.00 | 0.00 | 0.00 | 69 | 1019.6 |
| 20260905015427 | 81 | 206 | 1.0 | 6.0 | 0.00 | 0.00 | 0.00 | 69 | 1019.6 |
| 20260905015345 | 81 | 196 | 1.0 | 3.0 | 0.00 | 0.00 | 0.00 | 68 | 1019.6 |
| 20260905015215 | 81 | 205 | 1.0 | 3.0 | 0.00 | 0.00 | 0.00 | 68 | 1019.5 |
| 20260905015116 | 81 | 202 | 1.0 | 3.0 | 0.00 | 0.00 | 0.00 | 68 | 1019.6 |
| 20260905015017 | 81 | 203 | 1.0 | 3.0 | 0.00 | 0.00 | 0.00 | 68 | 1019.5 |
| 20260905014935 | 81 | 203 | 1.0 | 3.0 | 0.00 | 0.00 | 0.00 | 68 | 1019.6 |
| 20260905014833 | 81 | 203 | 1.0 | 3.0 | 0.00 | 0.00 | 0.00 | 68 | 1019.6 |
| 20260905014714 | 81 | 201 | 1.0 | 3.0 | 0.00 | 0.00 | 0.00 | 68 | 1019.6 |
| 20260905014616 | 81 | 201 | 1.0 | 4.0 | 0.00 | 0.00 | 0.00 | 68 | 1019.5 |
| 20260905014541 | 81 | 181 | 1.0 | 4.0 | 0.00 | 0.00 | 0.00 | 68 | 1019.6 |
| 20260905014530 | 81 | 181 | 1.0 | 4.0 | 0.00 | 0.00 | 0.00 | 68 | 1019.6 |
| 20260905014310 | 81 | 179 | 1.0 | 4.0 | 0.00 | 0.00 | 0.00 | 68 | 1019.6 |
| 20260905014208 | 81 | 182 | 1.0 | 4.0 | 0.00 | 0.00 | 0.00 | 68 | 1019.6 |
| 20260905014111 | 81 | 182 | 1.0 | 4.0 | 0.00 | 0.00 | 0.00 | 68 | 1019.6 |
| 20260905014005 | 81 | 182 | 1.0 | 4.0 | 0.00 | 0.00 | 0.00 | 68 | 1019.6 |
| 20260905013912 | 81 | 165 | 1.0 | 4.0 | 0.00 | 0.00 | 0.00 | 68 | 1019.6 |
| 20260905013802 | 81 | 165 | 1.0 | 4.0 | 0.00 | 0.00 | 0.00 | 68 | 1019.6 |
| 20260905013702 | 81 | 197 | 1.0 | 4.0 | 0.00 | 0.00 | 0.00 | 68 | 1019.5 |
| 20260905013649 | 81 | 246 | 1.0 | 3.0 | 0.00 | 0.00 | 0.00 | 68 | 1019.5 |
| 20260905013504 | 81 | 246 | 1.0 | 3.0 | 0.00 | 0.00 | 0.00 | 68 | 1019.5 |
| 20260905013401 | 81 | 182 | 1.0 | 3.0 | 0.00 | 0.00 | 0.00 | 68 | 1019.6 |
| 20260905013303 | 81 | 182 | 1.0 | 3.0 | 0.00 | 0.00 | 0.00 | 68 | 1019.5 |
| 20260905013234 | 81 | 188 | 1.0 | 4.0 | 0.00 | 0.00 | 0.00 | 68 | 1019.5 |
| 20260905013224 | 81 | 254 | 1.0 | 4.0 | 0.00 | 0.00 | 0.00 | 68 | 1019.5 |
| 20260905012957 | 81 | 184 | 1.0 | 4.0 | 0.00 | 0.00 | 0.00 | 68 | 1019.5 |
| 20260905012855 | 81 | 180 | 1.0 | 4.0 | 0.00 | 0.00 | 0.00 | 68 | 1019.5 |
| 20260905012829 | 81 | 217 | 1.0 | 4.0 | 0.00 | 0.00 | 0.00 | 68 | 1019.5 |
| 20260905012817 | 81 | 179 | 1.0 | 4.0 | 0.00 | 0.00 | 0.00 | 68 | 1019.4 |
| 20260905012555 | 82 | 179 | 1.0 | 4.0 | 0.00 | 0.00 | 0.00 | 68 | 1019.4 |
| 20260905012529 | 82 | 194 | 1.0 | 4.0 | 0.00 | 0.00 | 0.00 | 68 | 1019.5 |
| 20260905012516 | 81 | 179 | 1.0 | 4.0 | 0.00 | 0.00 | 0.00 | 68 | 1019.5 |
| 20260905012253 | 82 | 190 | 1.0 | 4.0 | 0.00 | 0.00 | 0.00 | 68 | 1019.4 |
| 20260905012152 | 82 | 187 | 1.0 | 4.0 | 0.00 | 0.00 | 0.00 | 68 | 1019.5 |
| 20260905012054 | 82 | 181 | 1.0 | 4.0 | 0.00 | 0.00 | 0.00 | 68 | 1019.4 |
| 20260905012005 | 82 | 175 | 1.0 | 4.0 | 0.00 | 0.00 | 0.00 | 68 | 1019.4 |
| 20260905011925 | 82 | 189 | 1.0 | 4.0 | 0.00 | 0.00 | 0.00 | 68 | 1019.4 |
| 20260905011913 | 82 | 189 | 1.0 | 4.0 | 0.00 | 0.00 | 0.00 | 68 | 1019.4 |
| 20260905011732 | 82 | 187 | 1.0 | 4.0 | 0.00 | 0.00 | 0.00 | 68 | 1019.4 |
| 20260905011714 | 82 | 187 | 1.0 | 4.0 | 0.00 | 0.00 | 0.00 | 67 | 1019.5 |
| 20260905011448 | 82 | 217 | 1.0 | 4.0 | 0.00 | 0.00 | 0.00 | 68 | 1019.4 |
| 20260905011348 | 82 | 217 | 1.0 | 4.0 | 0.00 | 0.00 | 0.00 | 67 | 1019.4 |
| 20260905011246 | 82 | 217 | 1.0 | 4.0 | 0.00 | 0.00 | 0.00 | 67 | 1019.3 |
| 20260905011143 | 82 | 195 | 1.0 | 4.0 | 0.00 | 0.00 | 0.00 | 67 | 1019.4 |
| 20260905011042 | 82 | 195 | 1.0 | 4.0 | 0.00 | 0.00 | 0.00 | 67 | 1019.4 |
| 20260905010941 | 82 | 147 | 1.0 | 4.0 | 0.00 | 0.00 | 0.00 | 67 | 1019.3 |
| 20260905010843 | 82 | 191 | 1.0 | 4.0 | 0.00 | 0.00 | 0.00 | 67 | 1019.3 |
| 20260905010738 | 82 | 192 | 1.0 | 4.0 | 0.00 | 0.00 | 0.00 | 67 | 1019.4 |
| 20260905010649 | 82 | 194 | 1.0 | 4.0 | 0.00 | 0.00 | 0.00 | 67 | 1019.3 |
| 20260905010537 | 82 | 194 | 1.0 | 4.0 | 0.00 | 0.00 | 0.00 | 67 | 1019.4 |
| 20260905010510 | 82 | 192 | 2.0 | 4.0 | 0.00 | 0.00 | 0.00 | 67 | 1019.3 |
| 20260905010459 | 82 | 192 | 2.0 | 4.0 | 0.00 | 0.00 | 0.00 | 67 | 1019.4 |
| 20260905010313 | 82 | 178 | 1.0 | 3.0 | 0.00 | 0.00 | 0.00 | 66 | 1019.3 |
| 20260905010139 | 82 | 182 | 2.0 | 3.0 | 0.00 | 0.00 | 0.00 | 66 | 1019.3 |
| 20260905010113 | 82 | 178 | 1.0 | 3.0 | 0.00 | 0.00 | 0.00 | 66 | 1019.3 |
| 20260905005834 | 82 | 178 | 1.0 | 3.0 | 0.00 | 0.00 | 0.00 | 66 | 1019.4 |
| 20260905005731 | 82 | 178 | 1.0 | 3.0 | 0.00 | 0.00 | 0.00 | 66 | 1019.3 |
| 20260905005633 | 82 | 178 | 1.0 | 3.0 | 0.00 | 0.00 | 0.00 | 66 | 1019.3 |
| 20260905005625 | 82 | 178 | 1.0 | 3.0 | 0.00 | 0.00 | 0.00 | 66 | 1019.3 |
| 20260905005617 | 82 | 178 | 1.0 | 3.0 | 0.00 | 0.00 | 0.00 | 66 | 1019.3 |
| 20260905005327 | 82 | 220 | 1.0 | 2.0 | 0.00 | 0.00 | 0.00 | 66 | 1019.3 |
| 20260905005227 | 82 | 220 | 1.0 | 2.0 | 0.00 | 0.00 | 0.00 | 66 | 1019.3 |
| 20260905005126 | 82 | 220 | 1.0 | 2.0 | 0.00 | 0.00 | 0.00 | 65 | 1019.3 |
| 20260905005028 | 82 | 220 | 1.0 | 2.0 | 0.00 | 0.00 | 0.00 | 66 | 1019.3 |
| 20260905004924 | 82 | 220 | 1.0 | 2.0 | 0.00 | 0.00 | 0.00 | 66 | 1019.3 |
| 20260905004824 | 82 | 220 | 1.0 | 2.0 | 0.00 | 0.00 | 0.00 | 66 | 1019.3 |
| 20260905004727 | 82 | 220 | 1.0 | 2.0 | 0.00 | 0.00 | 0.00 | 66 | 1019.3 |
| 20260905004654 | 82 | 220 | 1.0 | 2.0 | 0.00 | 0.00 | 0.00 | 65 | 1019.3 |
| 20260905004645 | 82 | 220 | 1.0 | 2.0 | 0.00 | 0.00 | 0.00 | 65 | 1019.3 |
| 20260905004423 | 82 | 220 | 1.0 | 3.0 | 0.00 | 0.00 | 0.00 | 65 | 1019.3 |
| 20260905004325 | 82 | 219 | 1.0 | 3.0 | 0.00 | 0.00 | 0.00 | 65 | 1019.3 |
| 20260905004310 | 82 | 219 | 1.0 | 3.0 | 0.00 | 0.00 | 0.00 | 66 | 1019.4 |
| 20260905004258 | 82 | 219 | 1.0 | 3.0 | 0.00 | 0.00 | 0.00 | 66 | 1019.3 |
| 20260905004024 | 82 | 219 | 1.0 | 3.0 | 0.00 | 0.00 | 0.00 | 66 | 1019.4 |
| 20260905003925 | 82 | 219 | 2.0 | 3.0 | 0.00 | 0.00 | 0.00 | 66 | 1019.4 |
| 20260905003821 | 82 | 219 | 2.0 | 3.0 | 0.00 | 0.00 | 0.00 | 66 | 1019.4 |
| 20260905003721 | 82 | 219 | 2.0 | 3.0 | 0.00 | 0.00 | 0.00 | 66 | 1019.3 |
| 20260905003702 | 82 | 219 | 2.0 | 3.0 | 0.00 | 0.00 | 0.00 | 67 | 1019.4 |
| 20260905003646 | 82 | 219 | 2.0 | 3.0 | 0.00 | 0.00 | 0.00 | 65 | 1019.3 |
| 20260905003523 | 82 | 219 | 2.0 | 3.0 | 0.00 | 0.00 | 0.00 | 65 | 1019.3 |
| 20260905003516 | 82 | 219 | 2.0 | 3.0 | 0.00 | 0.00 | 0.00 | 66 | 1019.3 |
| 20260905003510 | 82 | 219 | 2.0 | 3.0 | 0.00 | 0.00 | 0.00 | 66 | 1019.4 |
| 20260905003454 | 82 | 219 | 2.0 | 3.0 | 0.00 | 0.00 | 0.00 | 66 | 1019.4 |
| 20260905003434 | 82 | 219 | 2.0 | 3.0 | 0.00 | 0.00 | 0.00 | 66 | 1019.3 |
| 20260905003137 | 82 | 219 | 2.0 | 3.0 | 0.00 | 0.00 | 0.00 | 66 | 1019.4 |
| 20260905002925 | 82 | 219 | 2.0 | 3.0 | 0.00 | 0.00 | 0.00 | 67 | 1019.4 |
| 20260905002721 | 82 | 219 | 2.0 | 3.0 | 0.00 | 0.00 | 0.00 | 67 | 1019.5 |
| 20260905002656 | 82 | 219 | 2.0 | 3.0 | 0.00 | 0.00 | 0.00 | 67 | 1019.4 |
| 20260905002646 | 82 | 219 | 2.0 | 3.0 | 0.00 | 0.00 | 0.00 | 67 | 1019.4 |
| 20260905002418 | 82 | 219 | 1.0 | 3.0 | 0.00 | 0.00 | 0.00 | 67 | 1019.4 |
| 20260905002317 | 82 | 219 | 1.0 | 2.0 | 0.00 | 0.00 | 0.00 | 67 | 1019.4 |
| 20260905002253 | 82 | 219 | 1.0 | 3.0 | 0.00 | 0.00 | 0.00 | 67 | 1019.4 |
| 20260905002242 | 82 | 219 | 1.0 | 2.0 | 0.00 | 0.00 | 0.00 | 67 | 1019.4 |
| 20260905002019 | 82 | 219 | 2.0 | 3.0 | 0.00 | 0.00 | 0.00 | 67 | 1019.4 |
| 20260905001918 | 82 | 219 | 2.0 | 3.0 | 0.00 | 0.00 | 0.00 | 67 | 1019.3 |
| 20260905001816 | 82 | 219 | 2.0 | 3.0 | 0.00 | 0.00 | 0.00 | 67 | 1019.4 |
| 20260905001715 | 82 | 219 | 2.0 | 3.0 | 0.00 | 0.00 | 0.00 | 67 | 1019.3 |
| 20260905001614 | 82 | 219 | 2.0 | 3.0 | 0.00 | 0.00 | 0.00 | 67 | 1019.3 |
| 20260905001514 | 82 | 219 | 2.0 | 3.0 | 0.00 | 0.00 | 0.00 | 67 | 1019.4 |
| 20260905001446 | 82 | 219 | 2.0 | 3.0 | 0.00 | 0.00 | 0.00 | 67 | 1019.3 |
| 20260905001435 | 82 | 219 | 2.0 | 3.0 | 0.00 | 0.00 | 0.00 | 67 | 1019.3 |
| 20260905001214 | 82 | 219 | 2.0 | 3.0 | 0.00 | 0.00 | 0.00 | 67 | 1019.3 |
| 20260905001129 | 82 | 219 | 2.0 | 3.0 | 0.00 | 0.00 | 0.00 | 68 | 1019.3 |
| 20260905001124 | 82 | 220 | 2.0 | 3.0 | 0.00 | 0.00 | 0.00 | 68 | 1019.3 |
| 20260905001111 | 82 | 220 | 2.0 | 3.0 | 0.00 | 0.00 | 0.00 | 67 | 1019.3 |
| 20260905001048 | 82 | 219 | 2.0 | 3.0 | 0.00 | 0.00 | 0.00 | 67 | 1019.3 |
| 20260905000706 | 82 | 219 | 2.0 | 3.0 | 0.00 | 0.00 | 0.00 | 68 | 1019.3 |
| 20260905000606 | 82 | 220 | 2.0 | 3.0 | 0.00 | 0.00 | 0.00 | 68 | 1019.4 |
| 20260905000507 | 82 | 220 | 2.0 | 3.0 | 0.00 | 0.00 | 0.00 | 68 | 1019.4 |
| 20260905000441 | 82 | 234 | 2.0 | 3.0 | 0.00 | 0.00 | 0.00 | 68 | 1019.4 |
| 20260905000429 | 82 | 234 | 2.0 | 3.0 | 0.00 | 0.00 | 0.00 | 68 | 1019.4 |
| 20260905000303 | 82 | 234 | 1.0 | 3.0 | 0.00 | 0.00 | 0.00 | 68 | 1019.3 |
| 20260905000257 | 82 | 234 | 1.0 | 3.0 | 0.00 | 0.00 | 0.00 | 68 | 1019.4 |
| 20260905000236 | 82 | 234 | 2.0 | 3.0 | 0.00 | 0.00 | 0.00 | 68 | 1019.4 |
| 20260904235900 | 82 | 234 | 1.0 | 3.0 | 0.00 | 0.00 | 0.00 | 68 | 1019.4 |
| 20260904235757 | 82 | 234 | 1.0 | 3.0 | 0.00 | 0.00 | 0.00 | 69 | 1019.4 |
| 20260904235658 | 82 | 234 | 2.0 | 3.0 | 0.00 | 0.00 | 0.00 | 69 | 1019.4 |
| 20260904235602 | 81 | 234 | 2.0 | 3.0 | 0.00 | 0.00 | 0.00 | 69 | 1019.4 |
| 20260904235555 | 82 | 234 | 2.0 | 3.0 | 0.00 | 0.00 | 0.00 | 69 | 1019.3 |
| 20260904235549 | 82 | 234 | 2.0 | 3.0 | 0.00 | 0.00 | 0.00 | 69 | 1019.3 |
| 20260904235532 | 82 | 234 | 2.0 | 3.0 | 0.00 | 0.00 | 0.00 | 69 | 1019.4 |
| 20260904235356 | 82 | 234 | 2.0 | 3.0 | 0.00 | 0.00 | 0.00 | 69 | 1019.4 |
| 20260904235218 | 82 | 234 | 2.0 | 3.0 | 0.00 | 0.00 | 0.00 | 69 | 1019.4 |
| 20260904234952 | 82 | 234 | 2.0 | 3.0 | 0.00 | 0.00 | 0.00 | 69 | 1019.4 |
| 20260904234851 | 82 | 234 | 2.0 | 3.0 | 0.00 | 0.00 | 0.00 | 69 | 1019.3 |
| 20260904234754 | 82 | 234 | 2.0 | 4.0 | 0.00 | 0.00 | 0.00 | 69 | 1019.3 |
| 20260904234650 | 82 | 234 | 2.0 | 4.0 | 0.00 | 0.00 | 0.00 | 69 | 1019.4 |
| 20260904234550 | 82 | 234 | 2.0 | 4.0 | 0.00 | 0.00 | 0.00 | 69 | 1019.4 |
| 20260904234451 | 82 | 234 | 2.0 | 4.0 | 0.00 | 0.00 | 0.00 | 70 | 1019.3 |
| 20260904234349 | 82 | 234 | 2.0 | 4.0 | 0.00 | 0.00 | 0.00 | 69 | 1019.4 |
| 20260904234247 | 82 | 234 | 2.0 | 4.0 | 0.00 | 0.00 | 0.00 | 69 | 1019.3 |
| 20260904234146 | 82 | 234 | 2.0 | 4.0 | 0.00 | 0.00 | 0.00 | 69 | 1019.3 |
| 20260904234045 | 82 | 232 | 2.0 | 4.0 | 0.00 | 0.00 | 0.00 | 69 | 1019.3 |
| 20260904234029 | 82 | 228 | 2.0 | 4.0 | 0.00 | 0.00 | 0.00 | 69 | 1019.3 |
| 20260904234017 | 82 | 232 | 2.0 | 4.0 | 0.00 | 0.00 | 0.00 | 69 | 1019.3 |
| 20260904233743 | 82 | 217 | 1.0 | 3.0 | 0.00 | 0.00 | 0.00 | 69 | 1019.3 |
| 20260904233646 | 82 | 217 | 1.0 | 3.0 | 0.00 | 0.00 | 0.00 | 69 | 1019.3 |
| 20260904233541 | 82 | 205 | 2.0 | 3.0 | 0.00 | 0.00 | 0.00 | 69 | 1019.3 |
| 20260904233442 | 82 | 205 | 2.0 | 5.0 | 0.00 | 0.00 | 0.00 | 68 | 1019.2 |
| 20260904233343 | 82 | 205 | 2.0 | 5.0 | 0.00 | 0.00 | 0.00 | 68 | 1019.2 |
| 20260904233238 | 82 | 204 | 2.0 | 5.0 | 0.00 | 0.00 | 0.00 | 68 | 1019.2 |
| 20260904233137 | 82 | 202 | 2.0 | 5.0 | 0.00 | 0.00 | 0.00 | 68 | 1019.2 |
| 20260904233113 | 83 | 211 | 2.0 | 5.0 | 0.00 | 0.00 | 0.00 | 68 | 1019.2 |
| 20260904233102 | 83 | 202 | 2.0 | 5.0 | 0.00 | 0.00 | 0.00 | 68 | 1019.1 |
| 20260904232838 | 83 | 211 | 2.0 | 5.0 | 0.00 | 0.00 | 0.00 | 68 | 1019.2 |
| 20260904232743 | 83 | 211 | 2.0 | 5.0 | 0.00 | 0.00 | 0.00 | 67 | 1019.2 |
| 20260904232645 | 83 | 211 | 3.0 | 5.0 | 0.00 | 0.00 | 0.00 | 67 | 1019.2 |
| 20260904232537 | 83 | 188 | 2.0 | 5.0 | 0.00 | 0.00 | 0.00 | 67 | 1019.1 |
| 20260904232437 | 83 | 221 | 2.0 | 5.0 | 0.00 | 0.00 | 0.00 | 67 | 1019.1 |
| 20260904232335 | 83 | 222 | 2.0 | 5.0 | 0.00 | 0.00 | 0.00 | 67 | 1019.0 |
| 20260904232233 | 83 | 224 | 2.0 | 5.0 | 0.00 | 0.00 | 0.00 | 67 | 1019.1 |
| 20260904232205 | 83 | 236 | 2.0 | 4.0 | 0.00 | 0.00 | 0.00 | 67 | 1019.0 |
| 20260904232154 | 83 | 220 | 2.0 | 4.0 | 0.00 | 0.00 | 0.00 | 67 | 1019.0 |
| 20260904231931 | 83 | 222 | 2.0 | 4.0 | 0.00 | 0.00 | 0.00 | 67 | 1019.0 |
| 20260904231830 | 83 | 200 | 2.0 | 4.0 | 0.00 | 0.00 | 0.00 | 67 | 1019.0 |
| 20260904231752 | 83 | 203 | 2.0 | 4.0 | 0.00 | 0.00 | 0.00 | 67 | 1019.0 |
| 20260904231746 | 83 | 204 | 2.0 | 4.0 | 0.00 | 0.00 | 0.00 | 67 | 1019.0 |
| 20260904231734 | 83 | 201 | 2.0 | 4.0 | 0.00 | 0.00 | 0.00 | 67 | 1018.9 |
| 20260904231712 | 83 | 203 | 2.0 | 4.0 | 0.00 | 0.00 | 0.00 | 67 | 1018.9 |
| 20260904231327 | 83 | 204 | 1.0 | 4.0 | 0.00 | 0.00 | 0.00 | 67 | 1018.9 |
| 20260904231229 | 83 | 205 | 1.0 | 4.0 | 0.00 | 0.00 | 0.00 | 67 | 1018.9 |
| 20260904231128 | 83 | 205 | 1.0 | 4.0 | 0.00 | 0.00 | 0.00 | 67 | 1019.0 |
| 20260904231030 | 83 | 186 | 1.0 | 4.0 | 0.00 | 0.00 | 0.00 | 67 | 1019.0 |
| 20260904230947 | 83 | 259 | 2.0 | 5.0 | 0.00 | 0.00 | 0.00 | 67 | 1018.9 |
| 20260904230934 | 83 | 184 | 1.0 | 5.0 | 0.00 | 0.00 | 0.00 | 67 | 1019.0 |
| 20260904230913 | 83 | 206 | 1.0 | 5.0 | 0.00 | 0.00 | 0.00 | 67 | 1018.9 |
| 20260904230755 | 83 | 223 | 2.0 | 5.0 | 0.00 | 0.00 | 0.00 | 67 | 1019.0 |
| 20260904230744 | 83 | 206 | 1.0 | 5.0 | 0.00 | 0.00 | 0.00 | 67 | 1018.9 |
| 20260904230554 | 83 | 223 | 2.0 | 5.0 | 0.00 | 0.00 | 0.00 | 67 | 1018.9 |
| 20260904230313 | 83 | 223 | 2.0 | 5.0 | 0.00 | 0.00 | 0.00 | 67 | 1018.9 |
| 20260904230213 | 83 | 223 | 2.0 | 5.0 | 0.00 | 0.00 | 0.00 | 67 | 1018.9 |
| 20260904230114 | 83 | 223 | 2.0 | 5.0 | 0.00 | 0.00 | 0.00 | 67 | 1018.9 |
| 20260904230056 | 83 | 215 | 2.0 | 5.0 | 0.00 | 0.00 | 0.00 | 67 | 1018.9 |
| 20260904230043 | 83 | 202 | 2.0 | 5.0 | 0.00 | 0.00 | 0.00 | 67 | 1019.0 |
| 20260904225908 | 83 | 200 | 2.0 | 5.0 | 0.00 | 0.00 | 0.00 | 67 | 1019.0 |
| 20260904225903 | 83 | 208 | 2.0 | 5.0 | 0.00 | 0.00 | 0.00 | 67 | 1019.0 |
| 20260904225857 | 83 | 176 | 2.0 | 5.0 | 0.00 | 0.00 | 0.00 | 67 | 1019.0 |
| 20260904225841 | 83 | 181 | 2.0 | 5.0 | 0.00 | 0.00 | 0.00 | 67 | 1019.0 |
| 20260904225652 | 83 | 172 | 2.0 | 5.0 | 0.00 | 0.00 | 0.00 | 67 | 1019.0 |
| 20260904225529 | 83 | 213 | 2.0 | 5.0 | 0.00 | 0.00 | 0.00 | 67 | 1019.0 |
| 20260904225507 | 83 | 213 | 2.0 | 5.0 | 0.00 | 0.00 | 0.00 | 67 | 1019.0 |
| 20260904225348 | 83 | 200 | 2.0 | 5.0 | 0.00 | 0.00 | 0.00 | 67 | 1019.0 |
| 20260904225115 | 83 | 215 | 2.0 | 4.0 | 0.00 | 0.00 | 0.00 | 67 | 1019.0 |
| 20260904225011 | 83 | 194 | 2.0 | 5.0 | 0.00 | 0.00 | 0.00 | 67 | 1019.1 |
| 20260904224909 | 83 | 225 | 2.0 | 5.0 | 0.00 | 0.00 | 0.00 | 67 | 1019.1 |
| 20260904224811 | 83 | 184 | 2.0 | 5.0 | 0.00 | 0.00 | 0.00 | 67 | 1019.0 |
| 20260904224710 | 83 | 183 | 2.0 | 5.0 | 0.00 | 0.00 | 0.00 | 67 | 1019.0 |
| 20260904224612 | 83 | 171 | 2.0 | 5.0 | 0.00 | 0.00 | 0.00 | 67 | 1019.1 |
| 20260904224510 | 83 | 177 | 2.0 | 5.0 | 0.00 | 0.00 | 0.00 | 67 | 1019.1 |
| 20260904224410 | 83 | 175 | 2.0 | 5.0 | 0.00 | 0.00 | 0.00 | 67 | 1019.1 |
| 20260904224307 | 83 | 192 | 2.0 | 5.0 | 0.00 | 0.00 | 0.00 | 67 | 1019.2 |
| 20260904224240 | 83 | 165 | 2.0 | 5.0 | 0.00 | 0.00 | 0.00 | 68 | 1019.2 |
| 20260904224230 | 83 | 167 | 2.0 | 5.0 | 0.00 | 0.00 | 0.00 | 68 | 1019.2 |
| 20260904224006 | 83 | 223 | 2.0 | 4.0 | 0.00 | 0.00 | 0.00 | 68 | 1019.2 |
| 20260904223906 | 83 | 184 | 2.0 | 5.0 | 0.00 | 0.00 | 0.00 | 68 | 1019.2 |
| 20260904223807 | 83 | 224 | 2.0 | 5.0 | 0.00 | 0.00 | 0.00 | 68 | 1019.1 |
| 20260904223708 | 83 | 189 | 2.0 | 5.0 | 0.00 | 0.00 | 0.00 | 68 | 1019.1 |
| 20260904223606 | 83 | 195 | 2.0 | 7.0 | 0.00 | 0.00 | 0.00 | 67 | 1019.1 |
| 20260904223507 | 83 | 206 | 2.0 | 7.0 | 0.00 | 0.00 | 0.00 | 67 | 1019.0 |
| 20260904223406 | 83 | 175 | 2.0 | 7.0 | 0.00 | 0.00 | 0.00 | 67 | 1019.1 |
| 20260904223343 | 83 | 175 | 2.0 | 7.0 | 0.00 | 0.00 | 0.00 | 67 | 1019.0 |
| 20260904223333 | 83 | 175 | 2.0 | 7.0 | 0.00 | 0.00 | 0.00 | 67 | 1019.0 |
| 20260904223140 | 83 | 198 | 2.0 | 7.0 | 0.00 | 0.00 | 0.00 | 67 | 1019.1 |
| 20260904223135 | 83 | 84 | 2.0 | 7.0 | 0.00 | 0.00 | 0.00 | 67 | 1019.0 |
| 20260904223118 | 83 | 144 | 2.0 | 7.0 | 0.00 | 0.00 | 0.00 | 67 | 1019.1 |
| 20260904223055 | 83 | 177 | 2.0 | 7.0 | 0.00 | 0.00 | 0.00 | 67 | 1019.1 |
| 20260904222706 | 83 | 173 | 2.0 | 7.0 | 0.00 | 0.00 | 0.00 | 67 | 1019.0 |
| 20260904222606 | 84 | 92 | 2.0 | 5.0 | 0.00 | 0.00 | 0.00 | 67 | 1019.0 |
| 20260904222506 | 84 | 198 | 2.0 | 5.0 | 0.00 | 0.00 | 0.00 | 67 | 1019.1 |
| 20260904222406 | 84 | 198 | 2.0 | 5.0 | 0.00 | 0.00 | 0.00 | 67 | 1018.9 |
| 20260904222306 | 84 | 146 | 2.0 | 5.0 | 0.00 | 0.00 | 0.00 | 67 | 1018.9 |
| 20260904222236 | 84 | 182 | 1.0 | 5.0 | 0.00 | 0.00 | 0.00 | 67 | 1019.0 |
| 20260904222226 | 84 | 206 | 1.0 | 5.0 | 0.00 | 0.00 | 0.00 | 67 | 1019.0 |
| 20260904222005 | 84 | 182 | 1.0 | 5.0 | 0.00 | 0.00 | 0.00 | 67 | 1018.9 |
| 20260904221905 | 85 | 207 | 1.0 | 5.0 | 0.00 | 0.00 | 0.00 | 67 | 1019.0 |
| 20260904221807 | 85 | 169 | 1.0 | 4.0 | 0.00 | 0.00 | 0.00 | 66 | 1018.9 |
| 20260904221703 | 85 | 109 | 1.0 | 6.0 | 0.00 | 0.00 | 0.00 | 66 | 1018.9 |
| 20260904221603 | 85 | 109 | 2.0 | 6.0 | 0.00 | 0.00 | 0.00 | 65 | 1018.9 |
| 20260904221533 | 85 | 200 | 2.0 | 9.0 | 0.00 | 0.00 | 0.00 | 66 | 1018.8 |
| 20260904221529 | 85 | 74 | 2.0 | 9.0 | 0.00 | 0.00 | 0.00 | 66 | 1018.8 |
| 20260904221513 | 85 | 109 | 2.0 | 6.0 | 0.00 | 0.00 | 0.00 | 66 | 1018.9 |
| 20260904221446 | 85 | 91 | 2.0 | 9.0 | 0.00 | 0.00 | 0.00 | 66 | 1018.9 |
| 20260904221104 | 85 | 74 | 2.0 | 9.0 | 0.00 | 0.00 | 0.00 | 66 | 1018.9 |
| 20260904220958 | 86 | 73 | 2.0 | 9.0 | 0.00 | 0.00 | 0.00 | 66 | 1018.9 |
| 20260904220859 | 86 | 182 | 3.0 | 9.0 | 0.00 | 0.00 | 0.00 | 66 | 1018.9 |
| 20260904220757 | 86 | 186 | 3.0 | 9.0 | 0.00 | 0.00 | 0.00 | 66 | 1018.8 |
| 20260904220658 | 86 | 116 | 3.0 | 9.0 | 0.00 | 0.00 | 0.00 | 66 | 1018.9 |
| 20260904220558 | 86 | 91 | 3.0 | 9.0 | 0.00 | 0.00 | 0.00 | 65 | 1018.9 |
| 20260904220457 | 86 | 178 | 3.0 | 9.0 | 0.00 | 0.00 | 0.00 | 65 | 1018.9 |
| 20260904220430 | 86 | 176 | 3.0 | 9.0 | 0.00 | 0.00 | 0.00 | 65 | 1018.9 |
| 20260904220422 | 86 | 157 | 3.0 | 9.0 | 0.00 | 0.00 | 0.00 | 65 | 1019.0 |
| 20260904220203 | 86 | 119 | 3.0 | 9.0 | 0.00 | 0.00 | 0.00 | 65 | 1019.0 |
| 20260904220058 | 85 | 141 | 3.0 | 9.0 | 0.00 | 0.00 | 0.00 | 66 | 1019.0 |
| 20260904215957 | 85 | 190 | 3.0 | 9.0 | 0.00 | 0.00 | 0.00 | 66 | 1019.0 |
| 20260904215858 | 85 | 176 | 3.0 | 9.0 | 0.00 | 0.00 | 0.00 | 65 | 1019.0 |
| 20260904215834 | 85 | 144 | 3.0 | 9.0 | 0.00 | 0.00 | 0.00 | 66 | 1019.1 |
| 20260904215821 | 85 | 125 | 3.0 | 9.0 | 0.00 | 0.00 | 0.00 | 66 | 1019.1 |
| 20260904215557 | 85 | 125 | 2.0 | 9.0 | 0.00 | 0.00 | 0.00 | 66 | 1019.1 |
| 20260904215502 | 85 | 196 | 2.0 | 8.0 | 0.00 | 0.00 | 0.00 | 66 | 1019.2 |
| 20260904215450 | 85 | 125 | 2.0 | 9.0 | 0.00 | 0.00 | 0.00 | 65 | 1019.1 |
| 20260904215444 | 85 | 87 | 2.0 | 9.0 | 0.00 | 0.00 | 0.00 | 66 | 1019.2 |
| 20260904215420 | 85 | 115 | 2.0 | 6.0 | 0.00 | 0.00 | 0.00 | 66 | 1019.1 |
| 20260904215403 | 85 | 150 | 2.0 | 6.0 | 0.00 | 0.00 | 0.00 | 66 | 1019.1 |
| 20260904215113 | 85 | 175 | 3.0 | 9.0 | 0.00 | 0.00 | 0.00 | 65 | 1019.1 |
| 20260904215109 | 86 | 202 | 3.0 | 9.0 | 0.00 | 0.00 | 0.00 | 65 | 1019.1 |
| 20260904215058 | 85 | 61 | 2.0 | 9.0 | 0.00 | 0.00 | 0.00 | 66 | 1019.1 |
| 20260904215051 | 86 | 184 | 3.0 | 9.0 | 0.00 | 0.00 | 0.00 | 65 | 1019.0 |
| 20260904215046 | 86 | 154 | 3.0 | 9.0 | 0.00 | 0.00 | 0.00 | 64 | 1019.0 |
| 20260904215026 | 85 | 160 | 2.0 | 9.0 | 0.00 | 0.00 | 0.00 | 67 | 1019.2 |
| 20260904215002 | 85 | 212 | 2.0 | 9.0 | 0.00 | 0.00 | 0.00 | 66 | 1019.1 |
| 20260904214940 | 85 | 174 | 2.0 | 9.0 | 0.00 | 0.00 | 0.00 | 66 | 1019.1 |
| 20260904214623 | 86 | 168 | 3.0 | 9.0 | 0.00 | 0.00 | 0.00 | 65 | 1019.1 |
| 20260904214057 | 86 | 155 | 3.0 | 9.0 | 0.00 | 0.00 | 0.00 | 64 | 1019.0 |
| 20260904213952 | 87 | 138 | 3.0 | 9.0 | 0.00 | 0.00 | 0.00 | 64 | 1018.9 |
| 20260904213851 | 87 | 129 | 3.0 | 9.0 | 0.00 | 0.00 | 0.00 | 64 | 1019.0 |
| 20260904213750 | 87 | 99 | 3.0 | 9.0 | 0.00 | 0.00 | 0.00 | 63 | 1018.9 |
| 20260904213715 | 87 | 128 | 3.0 | 8.0 | 0.00 | 0.00 | 0.00 | 63 | 1018.8 |
| 20260904213706 | 87 | 187 | 3.0 | 8.0 | 0.00 | 0.00 | 0.00 | 63 | 1018.8 |
| 20260904213447 | 87 | 186 | 2.0 | 8.0 | 0.00 | 0.00 | 0.00 | 62 | 1018.8 |
| 20260904213342 | 87 | 182 | 2.0 | 8.0 | 0.00 | 0.00 | 0.00 | 63 | 1018.8 |
| 20260904213240 | 87 | 175 | 2.0 | 8.0 | 0.00 | 0.00 | 0.00 | 63 | 1018.8 |
| 20260904213139 | 87 | 214 | 2.0 | 12.0 | 0.00 | 0.00 | 0.00 | 63 | 1018.7 |
| 20260904213043 | 87 | 167 | 3.0 | 12.0 | 0.00 | 0.00 | 0.00 | 62 | 1018.8 |
| 20260904212943 | 88 | 178 | 2.0 | 12.0 | 0.00 | 0.00 | 0.00 | 62 | 1018.8 |
| 20260904212825 | 87 | 160 | 2.0 | 12.0 | 0.00 | 0.00 | 0.00 | 62 | 1018.8 |
| 20260904212728 | 87 | 122 | 2.0 | 12.0 | 0.00 | 0.00 | 0.00 | 62 | 1018.8 |
| 20260904212709 | 87 | 126 | 2.0 | 12.0 | 0.00 | 0.00 | 0.00 | 62 | 1018.8 |
| 20260904212655 | 87 | 188 | 2.0 | 12.0 | 0.00 | 0.00 | 0.00 | 62 | 1018.8 |
| 20260904212431 | 88 | 126 | 2.0 | 12.0 | 0.00 | 0.00 | 0.00 | 61 | 1018.9 |
| 20260904212321 | 88 | 144 | 2.0 | 12.0 | 0.00 | 0.00 | 0.00 | 62 | 1018.9 |
| 20260904212221 | 88 | 175 | 2.0 | 12.0 | 0.00 | 0.00 | 0.00 | 60 | 1018.9 |
| 20260904212120 | 88 | 157 | 2.0 | 9.0 | 0.00 | 0.00 | 0.00 | 60 | 1018.9 |
| 20260904212019 | 88 | 113 | 2.0 | 7.0 | 0.00 | 0.00 | 0.00 | 60 | 1018.8 |
| 20260904211922 | 89 | 119 | 2.0 | 7.0 | 0.00 | 0.00 | 0.00 | 60 | 1019.0 |
| 20260904211846 | 89 | 119 | 2.0 | 7.0 | 0.00 | 0.00 | 0.00 | 58 | 1018.8 |
| 20260904211834 | 89 | 119 | 2.0 | 7.0 | 0.00 | 0.00 | 0.00 | 59 | 1018.9 |
| 20260904211613 | 89 | 118 | 2.0 | 10.0 | 0.00 | 0.00 | 0.00 | 57 | 1018.9 |
| 20260904211512 | 89 | 119 | 2.0 | 10.0 | 0.00 | 0.00 | 0.00 | 57 | 1018.9 |
| 20260904211444 | 89 | 169 | 3.0 | 10.0 | 0.00 | 0.00 | 0.00 | 55 | 1018.9 |
| 20260904211432 | 89 | 168 | 3.0 | 10.0 | 0.00 | 0.00 | 0.00 | 56 | 1018.9 |
| 20260904211205 | 89 | 94 | 3.0 | 10.0 | 0.00 | 0.00 | 0.00 | 53 | 1018.9 |
| 20260904211105 | 89 | 94 | 3.0 | 10.0 | 0.00 | 0.00 | 0.00 | 53 | 1018.9 |
| 20260904211053 | 90 | 100 | 4.0 | 11.0 | 0.00 | 0.00 | 0.00 | 52 | 1018.9 |
| 20260904211034 | 89 | 94 | 4.0 | 10.0 | 0.00 | 0.00 | 0.00 | 53 | 1018.9 |
| 20260904210907 | 90 | 101 | 4.0 | 10.0 | 0.00 | 0.00 | 0.00 | 54 | 1018.9 |
| 20260904210900 | 90 | 63 | 4.0 | 11.0 | 0.00 | 0.00 | 0.00 | 53 | 1018.8 |
| 20260904210842 | 90 | 100 | 4.0 | 11.0 | 0.00 | 0.00 | 0.00 | 53 | 1018.8 |
| 20260904210524 | 91 | 98 | 4.0 | 11.0 | 0.00 | 0.00 | 0.00 | 51 | 1019.0 |
| 20260904210519 | 91 | 55 | 3.0 | 11.0 | 0.00 | 0.00 | 0.00 | 52 | 1018.9 |
| 20260904210507 | 90 | 36 | 4.0 | 11.0 | 0.00 | 0.00 | 0.00 | 53 | 1018.9 |
| 20260904210444 | 90 | 32 | 4.0 | 11.0 | 0.00 | 0.00 | 0.00 | 53 | 1018.9 |
| 20260904210053 | 91 | 75 | 3.0 | 11.0 | 0.00 | 0.00 | 0.00 | 51 | 1018.9 |
| 20260904210026 | 92 | 40 | 2.0 | 11.0 | 0.00 | 0.00 | 0.00 | 54 | 1019.0 |
| 20260904210015 | 91 | 38 | 3.0 | 11.0 | 0.00 | 0.00 | 0.00 | 53 | 1019.0 |
| 20260904205743 | 92 | 47 | 2.0 | 8.0 | 0.00 | 0.00 | 0.00 | 54 | 1019.0 |
| 20260904205645 | 92 | 5 | 2.0 | 8.0 | 0.00 | 0.00 | 0.00 | 52 | 1019.1 |
| 20260904205542 | 92 | 53 | 2.0 | 8.0 | 0.00 | 0.00 | 0.00 | 52 | 1019.0 |
| 20260904205446 | 92 | 105 | 2.0 | 8.0 | 0.00 | 0.00 | 0.00 | 53 | 1019.0 |
| 20260904205349 | 92 | 34 | 2.0 | 8.0 | 0.00 | 0.00 | 0.00 | 52 | 1019.1 |
| 20260904205237 | 92 | 63 | 1.0 | 4.0 | 0.00 | 0.00 | 0.00 | 51 | 1019.1 |
| 20260904205219 | 92 | 52 | 2.0 | 4.0 | 0.00 | 0.00 | 0.00 | 55 | 1019.1 |
| 20260904205214 | 92 | 52 | 2.0 | 4.0 | 0.00 | 0.00 | 0.00 | 55 | 1019.2 |
| 20260904205202 | 92 | 72 | 2.0 | 4.0 | 0.00 | 0.00 | 0.00 | 55 | 1019.1 |
| 20260904205138 | 92 | 52 | 2.0 | 4.0 | 0.00 | 0.00 | 0.00 | 54 | 1019.1 |
| 20260904205009 | 92 | 52 | 2.0 | 4.0 | 0.00 | 0.00 | 0.00 | 55 | 1019.1 |
| 20260904204630 | 91 | 136 | 2.0 | 4.0 | 0.00 | 0.00 | 0.00 | 55 | 1019.2 |
| 20260904204529 | 91 | 138 | 2.0 | 4.0 | 0.00 | 0.00 | 0.00 | 54 | 1019.1 |
| 20260904204427 | 91 | 68 | 1.0 | 4.0 | 0.00 | 0.00 | 0.00 | 54 | 1019.1 |
| 20260904204326 | 91 | 59 | 1.0 | 4.0 | 0.00 | 0.00 | 0.00 | 55 | 1019.2 |
| 20260904204258 | 91 | 77 | 1.0 | 4.0 | 0.00 | 0.00 | 0.00 | 53 | 1019.3 |
| 20260904204244 | 91 | 53 | 1.0 | 4.0 | 0.00 | 0.00 | 0.00 | 54 | 1019.2 |
| 20260904204220 | 91 | 77 | 1.0 | 4.0 | 0.00 | 0.00 | 0.00 | 54 | 1019.1 |
| 20260904204046 | 91 | 77 | 1.0 | 4.0 | 0.00 | 0.00 | 0.00 | 55 | 1019.2 |
| 20260904203922 | 91 | 77 | 1.0 | 4.0 | 0.00 | 0.00 | 0.00 | 54 | 1019.2 |
| 20260904203912 | 91 | 77 | 1.0 | 4.0 | 0.00 | 0.00 | 0.00 | 53 | 1019.4 |
| 20260904203853 | 91 | 77 | 1.0 | 4.0 | 0.00 | 0.00 | 0.00 | 53 | 1019.3 |
| 20260904203515 | 91 | 77 | 1.0 | 4.0 | 0.00 | 0.00 | 0.00 | 53 | 1019.4 |
| 20260904203411 | 91 | 77 | 1.0 | 4.0 | 0.00 | 0.00 | 0.00 | 55 | 1019.4 |
| 20260904203310 | 91 | 50 | 2.0 | 6.0 | 0.00 | 0.00 | 0.00 | 54 | 1019.4 |
| 20260904203207 | 91 | 42 | 2.0 | 6.0 | 0.00 | 0.00 | 0.00 | 54 | 1019.4 |
| 20260904203108 | 91 | 42 | 2.0 | 6.0 | 0.00 | 0.00 | 0.00 | 55 | 1019.4 |
| 20260904203009 | 91 | 42 | 2.0 | 6.0 | 0.00 | 0.00 | 0.00 | 53 | 1019.3 |
| 20260904202907 | 91 | 42 | 2.0 | 6.0 | 0.00 | 0.00 | 0.00 | 52 | 1019.3 |
| 20260904202804 | 91 | 53 | 2.0 | 6.0 | 0.00 | 0.00 | 0.00 | 54 | 1019.3 |
| 20260904202654 | 91 | 40 | 3.0 | 6.0 | 0.00 | 0.00 | 0.00 | 54 | 1019.4 |
| 20260904202554 | 91 | 62 | 3.0 | 6.0 | 0.00 | 0.00 | 0.00 | 54 | 1019.4 |
| 20260904202453 | 91 | 65 | 3.0 | 7.0 | 0.00 | 0.00 | 0.00 | 54 | 1019.5 |
| 20260904202354 | 91 | 65 | 3.0 | 8.0 | 0.00 | 0.00 | 0.00 | 54 | 1019.5 |
| 20260904202320 | 91 | 64 | 3.0 | 8.0 | 0.00 | 0.00 | 0.00 | 53 | 1019.6 |
| 20260904202309 | 91 | 64 | 3.0 | 8.0 | 0.00 | 0.00 | 0.00 | 53 | 1019.5 |
| 20260904202043 | 92 | 54 | 3.0 | 8.0 | 0.00 | 0.00 | 0.00 | 53 | 1019.5 |
| 20260904201945 | 92 | 71 | 3.0 | 8.0 | 0.00 | 0.00 | 0.00 | 53 | 1019.6 |
| 20260904201844 | 92 | 73 | 4.0 | 8.0 | 0.00 | 0.00 | 0.00 | 52 | 1019.5 |
| 20260904201816 | 92 | 58 | 3.0 | 8.0 | 0.00 | 0.00 | 0.00 | 51 | 1019.5 |
| 20260904201805 | 92 | 57 | 3.0 | 8.0 | 0.00 | 0.00 | 0.00 | 52 | 1019.5 |
| 20260904201612 | 92 | 76 | 3.0 | 8.0 | 0.00 | 0.00 | 0.00 | 53 | 1019.5 |
| 20260904201603 | 92 | 71 | 3.0 | 8.0 | 0.00 | 0.00 | 0.00 | 53 | 1019.6 |
| 20260904201341 | 92 | 107 | 3.0 | 6.0 | 0.00 | 0.00 | 0.00 | 53 | 1019.5 |
| 20260904201238 | 92 | 79 | 3.0 | 6.0 | 0.00 | 0.00 | 0.00 | 53 | 1019.6 |
| 20260904201131 | 92 | 83 | 2.0 | 6.0 | 0.00 | 0.00 | 0.00 | 53 | 1019.6 |
| 20260904201033 | 92 | 98 | 2.0 | 5.0 | 0.00 | 0.00 | 0.00 | 53 | 1019.6 |
| 20260904200929 | 92 | 75 | 2.0 | 6.0 | 0.00 | 0.00 | 0.00 | 54 | 1019.6 |
| 20260904200829 | 92 | 69 | 2.0 | 6.0 | 0.00 | 0.00 | 0.00 | 53 | 1019.6 |
| 20260904200730 | 92 | 57 | 2.0 | 6.0 | 0.00 | 0.00 | 0.00 | 53 | 1019.6 |
| 20260904200703 | 92 | 44 | 2.0 | 6.0 | 0.00 | 0.00 | 0.00 | 53 | 1019.5 |
| 20260904200651 | 92 | 69 | 2.0 | 6.0 | 0.00 | 0.00 | 0.00 | 53 | 1019.5 |
| 20260904200430 | 92 | 57 | 2.0 | 6.0 | 0.00 | 0.00 | 0.00 | 52 | 1019.4 |
| 20260904200335 | 92 | 57 | 2.0 | 6.0 | 0.00 | 0.00 | 0.00 | 53 | 1019.5 |
| 20260904200230 | 92 | 57 | 2.0 | 6.0 | 0.00 | 0.00 | 0.00 | 52 | 1019.5 |
| 20260904200132 | 92 | 57 | 2.0 | 6.0 | 0.00 | 0.00 | 0.00 | 52 | 1019.5 |
| 20260904200106 | 92 | 104 | 2.0 | 7.0 | 0.00 | 0.00 | 0.00 | 53 | 1019.5 |
| 20260904200055 | 92 | 55 | 2.0 | 7.0 | 0.00 | 0.00 | 0.00 | 53 | 1019.5 |
| 20260904195828 | 92 | 72 | 2.0 | 7.0 | 0.00 | 0.00 | 0.00 | 52 | 1019.5 |
| 20260904195727 | 92 | 82 | 2.0 | 7.0 | 0.00 | 0.00 | 0.00 | 52 | 1019.5 |
| 20260904195629 | 92 | 57 | 2.0 | 7.0 | 0.00 | 0.00 | 0.00 | 53 | 1019.4 |
| 20260904195525 | 92 | 57 | 3.0 | 7.0 | 0.00 | 0.00 | 0.00 | 53 | 1019.5 |
| 20260904195434 | 92 | 57 | 3.0 | 7.0 | 0.00 | 0.00 | 0.00 | 52 | 1019.5 |
| 20260904195408 | 92 | 116 | 3.0 | 8.0 | 0.00 | 0.00 | 0.00 | 53 | 1019.4 |
| 20260904195353 | 92 | 61 | 3.0 | 8.0 | 0.00 | 0.00 | 0.00 | 53 | 1019.4 |
| 20260904195124 | 92 | 91 | 3.0 | 8.0 | 0.00 | 0.00 | 0.00 | 54 | 1019.5 |
| 20260904195024 | 92 | 351 | 3.0 | 9.0 | 0.00 | 0.00 | 0.00 | 54 | 1019.6 |
| 20260904194925 | 91 | 340 | 3.0 | 9.0 | 0.00 | 0.00 | 0.00 | 54 | 1019.6 |
| 20260904194825 | 91 | 332 | 4.0 | 11.0 | 0.00 | 0.00 | 0.00 | 54 | 1019.7 |
| 20260904194723 | 91 | 23 | 4.0 | 11.0 | 0.00 | 0.00 | 0.00 | 54 | 1019.7 |
| 20260904194623 | 91 | 103 | 4.0 | 11.0 | 0.00 | 0.00 | 0.00 | 53 | 1019.6 |
| 20260904194525 | 91 | 120 | 4.0 | 11.0 | 0.00 | 0.00 | 0.00 | 54 | 1019.7 |
| 20260904194426 | 91 | 113 | 4.0 | 11.0 | 0.00 | 0.00 | 0.00 | 54 | 1019.7 |
| 20260904194326 | 91 | 52 | 4.0 | 11.0 | 0.00 | 0.00 | 0.00 | 54 | 1019.8 |
| 20260904194225 | 91 | 38 | 4.0 | 11.0 | 0.00 | 0.00 | 0.00 | 55 | 1019.8 |
| 20260904194122 | 91 | 76 | 4.0 | 11.0 | 0.00 | 0.00 | 0.00 | 54 | 1019.8 |
| 20260904194026 | 91 | 72 | 4.0 | 11.0 | 0.00 | 0.00 | 0.00 | 54 | 1019.8 |
| 20260904193922 | 91 | 86 | 3.0 | 11.0 | 0.00 | 0.00 | 0.00 | 57 | 1019.8 |
| 20260904193824 | 91 | 120 | 3.0 | 8.0 | 0.00 | 0.00 | 0.00 | 56 | 1019.8 |
| 20260904193717 | 91 | 65 | 3.0 | 8.0 | 0.00 | 0.00 | 0.00 | 55 | 1019.9 |
| 20260904193615 | 90 | 54 | 3.0 | 8.0 | 0.00 | 0.00 | 0.00 | 55 | 1019.8 |
| 20260904193532 | 90 | 69 | 3.0 | 8.0 | 0.00 | 0.00 | 0.00 | 57 | 1019.9 |
| 20260904193517 | 90 | 63 | 4.0 | 8.0 | 0.00 | 0.00 | 0.00 | 55 | 1019.8 |
| 20260904193510 | 90 | 98 | 3.0 | 8.0 | 0.00 | 0.00 | 0.00 | 56 | 1019.9 |
| 20260904193451 | 90 | 46 | 4.0 | 8.0 | 0.00 | 0.00 | 0.00 | 55 | 1019.9 |
| 20260904193112 | 90 | 96 | 3.0 | 8.0 | 0.00 | 0.00 | 0.00 | 57 | 1019.9 |
| 20260904193009 | 90 | 97 | 3.0 | 8.0 | 0.00 | 0.00 | 0.00 | 56 | 1020.1 |
| 20260904192911 | 90 | 96 | 3.0 | 8.0 | 0.00 | 0.00 | 0.00 | 56 | 1020.2 |
| 20260904192810 | 90 | 65 | 3.0 | 8.0 | 0.00 | 0.00 | 0.00 | 56 | 1020.2 |
| 20260904192720 | 90 | 91 | 3.0 | 8.0 | 0.00 | 0.00 | 0.00 | 55 | 1020.1 |
| 20260904192610 | 90 | 78 | 3.0 | 8.0 | 0.00 | 0.00 | 0.00 | 58 | 1020.2 |
| 20260904192511 | 90 | 62 | 2.0 | 8.0 | 0.00 | 0.00 | 0.00 | 57 | 1020.2 |
| 20260904192412 | 90 | 65 | 2.0 | 7.0 | 0.00 | 0.00 | 0.00 | 57 | 1020.1 |
| 20260904192309 | 90 | 355 | 2.0 | 7.0 | 0.00 | 0.00 | 0.00 | 57 | 1020.2 |
| 20260904192202 | 90 | 355 | 3.0 | 7.0 | 0.00 | 0.00 | 0.00 | 57 | 1020.2 |
| 20260904192104 | 90 | 355 | 2.0 | 7.0 | 0.00 | 0.00 | 0.00 | 56 | 1020.3 |
| 20260904192003 | 89 | 355 | 2.0 | 7.0 | 0.00 | 0.00 | 0.00 | 57 | 1020.3 |
| 20260904191904 | 89 | 355 | 2.0 | 7.0 | 0.00 | 0.00 | 0.00 | 58 | 1020.4 |
| 20260904191804 | 89 | 336 | 2.0 | 7.0 | 0.00 | 0.00 | 0.00 | 57 | 1020.4 |
| 20260904191703 | 89 | 86 | 2.0 | 7.0 | 0.00 | 0.00 | 0.00 | 58 | 1020.4 |
| 20260904191601 | 89 | 59 | 2.0 | 6.0 | 0.00 | 0.00 | 0.00 | 59 | 1020.4 |
| 20260904191500 | 89 | 109 | 2.0 | 6.0 | 0.00 | 0.00 | 0.00 | 60 | 1020.4 |
| 20260904191400 | 89 | 104 | 2.0 | 6.0 | 0.00 | 0.00 | 0.00 | 60 | 1020.4 |
| 20260904191300 | 88 | 101 | 2.0 | 6.0 | 0.00 | 0.00 | 0.00 | 59 | 1020.5 |
| 20260904191243 | 88 | 60 | 1.0 | 6.0 | 0.00 | 0.00 | 0.00 | 61 | 1020.5 |
| 20260904191231 | 88 | 65 | 2.0 | 6.0 | 0.00 | 0.00 | 0.00 | 61 | 1020.5 |
| 20260904190958 | 88 | 54 | 1.0 | 6.0 | 0.00 | 0.00 | 0.00 | 61 | 1020.5 |
| 20260904190857 | 88 | 80 | 1.0 | 6.0 | 0.00 | 0.00 | 0.00 | 62 | 1020.5 |
| 20260904190758 | 88 | 88 | 1.0 | 6.0 | 0.00 | 0.00 | 0.00 | 63 | 1020.5 |
| 20260904190657 | 87 | 101 | 1.0 | 5.0 | 0.00 | 0.00 | 0.00 | 63 | 1020.5 |
| 20260904190601 | 87 | 26 | 1.0 | 3.0 | 0.00 | 0.00 | 0.00 | 62 | 1020.5 |
| 20260904190535 | 87 | 34 | 2.0 | 3.0 | 0.00 | 0.00 | 0.00 | 62 | 1020.5 |
| 20260904190523 | 87 | 34 | 2.0 | 3.0 | 0.00 | 0.00 | 0.00 | 63 | 1020.5 |
| 20260904190500 | 87 | 34 | 2.0 | 3.0 | 0.00 | 0.00 | 0.00 | 61 | 1020.5 |
| 20260904190325 | 87 | 34 | 2.0 | 3.0 | 0.00 | 0.00 | 0.00 | 61 | 1020.5 |
| 20260904190054 | 87 | 34 | 1.0 | 3.0 | 0.00 | 0.00 | 0.00 | 61 | 1020.5 |
| 20260904190042 | 87 | 35 | 2.0 | 3.0 | 0.00 | 0.00 | 0.00 | 61 | 1020.5 |
| 20260904190031 | 87 | 34 | 2.0 | 3.0 | 0.00 | 0.00 | 0.00 | 61 | 1020.5 |
| 20260904185753 | 87 | 35 | 1.0 | 3.0 | 0.00 | 0.00 | 0.00 | 60 | 1020.6 |
| 20260904185653 | 87 | 35 | 1.0 | 3.0 | 0.00 | 0.00 | 0.00 | 60 | 1020.5 |
| 20260904185555 | 87 | 35 | 1.0 | 3.0 | 0.00 | 0.00 | 0.00 | 60 | 1020.5 |
| 20260904185452 | 87 | 35 | 1.0 | 3.0 | 0.00 | 0.00 | 0.00 | 60 | 1020.6 |
| 20260904185351 | 87 | 35 | 1.0 | 3.0 | 0.00 | 0.00 | 0.00 | 61 | 1020.6 |
| 20260904185248 | 87 | 34 | 1.0 | 3.0 | 0.00 | 0.00 | 0.00 | 60 | 1020.6 |
| 20260904185149 | 87 | 34 | 1.0 | 3.0 | 0.00 | 0.00 | 0.00 | 60 | 1020.7 |
| 20260904185121 | 87 | 34 | 1.0 | 3.0 | 0.00 | 0.00 | 0.00 | 60 | 1020.6 |
| 20260904185110 | 87 | 34 | 1.0 | 3.0 | 0.00 | 0.00 | 0.00 | 62 | 1020.6 |
| 20260904184844 | 87 | 34 | 0.0 | 3.0 | 0.00 | 0.00 | 0.00 | 62 | 1020.6 |
| 20260904184743 | 87 | 34 | 0.0 | 3.0 | 0.00 | 0.00 | 0.00 | 61 | 1020.6 |
| 20260904184642 | 87 | 34 | 0.0 | 2.0 | 0.00 | 0.00 | 0.00 | 63 | 1020.6 |
| 20260904184613 | 87 | 34 | 1.0 | 2.0 | 0.00 | 0.00 | 0.00 | 63 | 1020.6 |
| 20260904184602 | 87 | 34 | 0.0 | 2.0 | 0.00 | 0.00 | 0.00 | 62 | 1020.6 |
| 20260904184338 | 87 | 34 | 1.0 | 2.0 | 0.00 | 0.00 | 0.00 | 62 | 1020.7 |
| 20260904184236 | 87 | 34 | 1.0 | 2.0 | 0.00 | 0.00 | 0.00 | 63 | 1020.6 |
| 20260904184135 | 87 | 34 | 1.0 | 2.0 | 0.00 | 0.00 | 0.00 | 62 | 1020.7 |
| 20260904184038 | 87 | 34 | 1.0 | 2.0 | 0.00 | 0.00 | 0.00 | 61 | 1020.7 |
| 20260904183935 | 87 | 34 | 1.0 | 2.0 | 0.00 | 0.00 | 0.00 | 61 | 1020.7 |
| 20260904183835 | 87 | 34 | 1.0 | 2.0 | 0.00 | 0.00 | 0.00 | 61 | 1020.7 |
| 20260904183732 | 87 | 34 | 1.0 | 2.0 | 0.00 | 0.00 | 0.00 | 61 | 1020.6 |
| 20260904183633 | 87 | 34 | 1.0 | 2.0 | 0.00 | 0.00 | 0.00 | 62 | 1020.8 |
| 20260904183532 | 87 | 34 | 1.0 | 2.0 | 0.00 | 0.00 | 0.00 | 62 | 1020.8 |